GEFSMA_con_prob3kmehi_174.txt.gz
EHI
34 29 24 21 19 19 22 20 16 10 8 7 4 1 0 1 1 2 5 7 4 1 1 2 2 2 2 4 5 2 0 0 1 2 1 0 0 0 0 0 0 0 0
37 32 24 20 18 18 19 19 17 12 10 8 4 1 1 1 1 2 3 5 3 1 1 1 2 3 2 3 2 1 1 1 1 2 1 0 0 0 0 0 0 0 0
37 33 25 19 18 18 20 20 19 15 12 10 7 4 3 2 2 2 2 3 3 2 2 3 4 4 3 1 0 1 2 4 3 1 1 0 0 0 0 0 0 0 0
32 29 22 19 21 23 23 21 19 16 13 11 9 7 6 5 4 3 1 1 2 2 3 5 5 4 2 2 1 2 3 6 5 2 1 1 1 1 1 1 0 0 0
27 23 18 19 24 27 25 21 19 17 14 12 9 7 6 7 6 3 0 1 2 2 3 5 5 3 2 3 3 2 3 6 7 6 4 3 3 3 3 1 0 0 0
22 19 17 19 23 25 24 21 17 15 15 13 7 5 5 5 5 3 1 1 2 2 2 2 3 2 2 2 3 2 2 4 8 10 8 7 7 6 4 2 1 0 0
17 17 16 18 20 21 21 19 14 11 12 12 8 5 4 3 2 2 1 0 1 1 0 0 2 2 2 1 1 1 1 3 7 10 11 10 9 8 5 3 2 1 0
15 15 17 20 21 20 18 16 13 9 8 9 8 5 4 2 1 1 0 0 0 0 0 0 2 2 2 2 1 1 1 3 5 9 10 10 10 9 5 3 3 1 0
15 16 19 22 23 20 18 17 15 11 9 9 7 4 3 2 1 1 0 0 1 1 1 1 2 3 3 3 3 1 1 2 4 6 8 10 10 7 5 3 3 2 1
12 14 17 20 21 20 19 18 17 14 13 10 5 3 2 2 2 2 1 1 1 2 3 4 4 5 4 4 4 2 0 1 2 3 5 7 7 6 4 3 2 2 2
9 10 13 16 18 19 19 19 17 15 12 8 5 4 3 3 3 2 1 1 1 1 3 5 5 5 3 2 2 2 0 0 1 1 3 5 5 5 5 2 1 1 1
9 9 10 13 15 17 17 17 15 11 9 7 6 5 4 4 3 2 1 0 0 1 3 4 4 3 2 2 1 1 0 0 0 1 2 3 4 4 3 1 1 0 0
10 9 9 11 13 15 15 14 12 9 7 7 7 6 5 4 3 2 1 0 1 2 4 4 3 3 3 3 2 1 0 0 0 1 2 2 2 2 1 0 0 0 0
9 8 8 8 11 12 11 9 8 8 8 8 7 6 6 4 4 3 1 0 1 2 4 4 2 2 3 3 2 1 0 0 0 0 1 1 1 1 0 0 0 0 0
5 5 6 6 7 8 7 6 7 8 9 9 8 7 6 5 4 4 2 0 0 1 3 4 2 1 2 2 1 1 1 1 0 0 0 0 0 0 0 0 0 0 0
3 3 4 6 6 6 5 5 6 7 8 8 7 6 5 4 5 5 4 1 0 0 2 3 1 1 2 1 1 2 2 1 0 0 0 0 0 0 0 0 0 0 0
3 3 4 6 6 6 5 5 5 5 5 5 5 4 4 4 4 5 4 2 0 0 0 1 1 2 2 1 1 3 2 1 0 0 0 0 0 0 0 0 0 0 0
4 3 4 5 5 4 4 3 2 2 2 3 3 3 3 3 3 3 3 1 1 0 0 0 1 2 2 2 2 2 2 1 0 0 0 0 0 0 0 0 0 0 0
5 4 3 4 4 3 3 2 1 1 2 3 3 3 3 1 1 2 1 0 0 0 0 0 0 1 1 1 1 1 1 1 0 0 0 0 0 0 0 0 0 0 0
5 4 3 3 3 3 3 3 2 2 3 3 3 3 2 1 0 0 0 0 0 0 0 0 0 0 0 1 1 1 1 0 0 0 0 0 0 0 0 0 0 0 0
5 4 3 3 2 3 3 2 3 3 3 3 2 2 1 0 0 0 0 0 0 0 0 0 0 0 0 0 1 1 0 0 0 0 0 0 0 0 0 0 0 0 0
6 5 4 4 3 2 1 1 3 3 3 2 1 0 0 0 0 0 0 0 0 0 0 0 0 0 0 0 0 0 0 0 0 0 0 0 0 0 0 0 0 0 0
6 6 6 5 3 1 0 1 2 3 4 3 1 0 0 0 0 0 0 0 0 0 0 0 0 0 0 0 0 0 0 0 0 0 0 0 0 0 0 0 0 0 0
6 6 6 5 4 2 0 0 1 3 4 3 2 1 0 0 0 0 0 0 0 0 0 0 0 0 0 0 0 0 0 0 0 0 0 0 0 0 0 0 0 0 0
4 4 4 4 4 3 1 0 0 1 2 3 2 1 0 0 0 0 0 0 0 0 0 0 0 0 0 0 0 0 0 0 0 0 0 0 0 0 0 0 0 0 0
3 2 2 2 4 3 1 0 0 0 1 1 1 0 0 0 0 0 0 0 0 0 0 0 0 0 0 0 0 0 0 0 0 0 0 0 0 0 0 0 0 0 0

GEFSMA_con_prob3kmehi_180.txt.gz
EHI
31 32 37 44 42 37 33 24 18 17 17 14 9 7 7 7 8 13 20 26 29 28 26 26 25 19 12 9 8 9 9 8 9 9 7 4 1 0 0 1 1 1 0
34 34 38 43 42 36 30 25 20 20 21 17 13 12 12 11 13 18 24 27 26 24 25 29 29 23 14 10 10 10 10 10 11 9 6 3 1 0 0 0 0 0 0
40 38 38 43 43 34 25 23 24 25 24 19 16 16 16 14 16 21 26 26 21 18 21 28 32 26 18 14 11 9 9 11 13 11 7 4 2 1 1 0 0 0 0
42 40 38 41 40 31 22 21 24 25 23 19 16 15 14 13 13 15 18 19 16 14 17 22 27 26 21 16 11 7 8 12 15 14 10 8 5 3 2 1 0 0 0
40 39 39 39 36 29 23 22 23 22 20 18 13 10 9 9 8 8 9 10 11 13 13 14 18 21 19 16 12 10 10 13 16 15 13 12 9 5 3 2 1 0 0
38 38 38 36 32 28 25 25 25 22 18 14 9 5 4 5 6 5 5 5 6 9 9 9 12 13 13 14 12 12 12 13 15 15 15 15 12 8 5 4 2 1 0
36 35 35 33 30 27 26 26 25 22 17 13 8 4 1 2 3 4 5 4 2 3 4 7 10 9 8 7 8 8 10 11 13 15 17 17 13 10 8 5 3 1 0
32 32 32 32 29 27 26 26 24 20 16 13 11 6 2 1 1 3 5 4 1 0 2 5 9 10 8 6 4 4 5 8 10 14 17 17 13 9 6 5 4 2 1
30 31 31 31 29 28 27 26 23 19 14 12 11 9 4 2 1 4 6 4 2 2 2 3 5 8 9 9 7 4 3 5 7 10 13 13 11 6 4 4 5 4 2
30 30 30 29 28 27 26 25 22 18 13 10 10 9 6 3 2 3 4 4 4 4 4 2 2 4 8 10 9 5 2 2 3 5 7 9 7 5 4 4 5 4 2
29 28 27 26 24 21 21 22 20 17 13 11 10 10 7 4 3 2 2 3 3 4 3 2 0 2 6 8 7 4 1 0 1 2 4 6 5 5 4 5 5 3 1
25 25 23 21 19 16 16 16 15 14 13 12 11 10 8 5 3 3 2 2 1 1 1 0 0 2 4 5 4 2 0 0 0 0 2 3 3 2 3 4 4 2 1
19 19 18 16 15 13 12 10 10 11 11 10 9 8 7 5 3 3 3 1 0 0 0 0 0 2 3 3 2 0 0 0 0 0 0 1 1 0 1 2 2 1 0
12 13 13 12 12 10 9 8 9 9 9 8 7 7 5 4 4 3 2 1 0 0 0 0 0 1 1 2 2 1 0 0 0 0 0 0 0 0 1 1 1 0 0
9 10 10 9 8 7 6 7 8 8 7 7 6 6 4 4 4 3 1 0 0 0 0 0 1 1 0 1 1 1 2 1 0 0 0 0 0 0 0 0 0 0 0
9 8 7 5 5 4 4 5 7 7 6 6 6 5 4 3 3 2 0 0 0 0 0 0 1 1 0 0 0 1 2 1 0 0 0 0 0 0 0 0 0 0 0
6 5 3 2 2 3 3 4 5 6 6 5 4 4 3 3 3 2 1 1 1 0 0 0 0 0 0 0 0 0 1 0 0 0 0 0 0 0 0 0 0 0 0
3 2 2 2 1 2 3 3 4 5 5 4 3 3 3 3 3 3 3 2 2 1 1 0 0 0 0 0 0 0 0 0 0 0 0 0 0 0 0 0 0 0 0
1 1 2 1 1 1 2 3 3 4 4 3 3 3 3 3 3 3 3 3 3 3 2 1 0 0 0 0 0 0 0 0 0 0 0 0 0 0 0 0 0 0 0
1 1 2 1 1 0 1 2 3 3 3 3 3 3 3 4 3 3 3 3 3 3 2 1 0 0 0 0 0 0 0 0 0 0 0 0 0 0 0 0 0 0 0
1 2 2 3 2 1 0 1 3 3 3 3 4 3 4 4 4 3 3 3 2 1 1 0 0 0 0 0 0 0 0 0 0 0 0 0 0 0 0 0 0 0 0
2 2 2 3 2 1 0 1 2 3 4 4 5 4 5 5 4 3 2 1 1 0 0 0 0 0 0 0 0 0 0 0 0 0 0 0 0 0 0 0 0 0 0
2 1 1 2 2 1 0 0 1 3 5 6 6 6 6 5 4 2 1 0 0 0 0 0 0 0 0 0 0 0 0 0 0 0 0 0 0 0 0 0 0 0 0
2 1 1 2 2 1 0 0 1 3 5 6 6 6 6 5 3 2 0 0 0 0 0 0 0 0 0 0 0 0 0 0 0 0 0 0 0 0 0 0 0 0 0
2 2 2 2 2 1 0 0 1 3 5 6 6 5 4 3 2 1 0 0 0 0 0 0 0 0 0 0 0 0 0 0 0 0 0 0 0 0 0 0 0 0 0
2 2 3 3 2 1 0 0 1 3 5 6 5 4 2 1 1 0 0 0 0 0 0 0 0 0 0 0 0 0 0 0 0 0 0 0 0 0 0 0 0 0 0

GEFSMA_con_prob3kmehi_186.txt.gz
EHI
18 16 16 17 19 20 18 15 13 9 5 1 0 0 0 1 2 2 2 6 12 18 20 21 24 28 29 27 24 19 11 6 4 3 4 5 4 3 2 2 2 0 0
18 17 16 16 17 18 17 13 11 8 4 1 0 0 0 0 1 2 2 5 11 15 16 18 20 22 23 22 21 18 12 8 6 6 6 6 5 3 2 1 2 1 0
16 15 14 13 15 16 14 10 8 5 2 1 0 0 0 0 0 1 1 4 7 9 11 14 16 18 17 16 16 15 13 10 9 9 8 5 4 3 1 1 1 1 0
16 14 11 11 12 13 12 9 6 3 2 1 1 1 0 0 0 0 0 1 2 4 6 9 13 15 15 13 13 12 11 10 10 10 8 5 4 3 1 0 1 1 1
17 15 12 12 12 12 10 7 4 3 3 2 2 1 0 0 0 0 0 0 0 1 2 4 8 12 14 12 10 9 8 8 10 10 7 4 3 3 1 0 0 1 2
16 16 15 14 13 11 9 6 3 2 2 2 1 0 0 0 0 0 0 0 0 0 1 2 4 8 10 10 10 8 6 7 8 8 6 3 3 4 2 1 1 2 3
15 16 16 15 13 10 8 6 3 1 1 1 1 1 1 0 0 0 0 0 0 0 0 1 2 3 5 8 9 8 6 6 7 8 7 6 6 6 4 3 3 3 3
16 16 14 12 12 10 8 7 4 1 1 2 4 3 2 1 0 0 0 0 0 0 0 0 0 1 2 4 6 6 6 6 8 10 11 10 11 10 7 5 4 3 3
16 16 13 11 11 11 10 8 6 3 2 3 5 5 3 1 0 0 0 0 0 0 0 0 0 0 0 1 2 3 4 5 7 11 13 13 13 11 8 6 4 3 2
13 13 12 10 11 11 10 9 8 6 4 4 5 5 2 0 0 0 0 0 0 0 0 0 0 0 0 0 0 1 1 2 3 7 10 11 11 9 9 8 5 2 2
8 9 9 8 7 9 9 9 9 7 6 4 4 4 3 1 1 1 0 0 0 0 0 0 0 0 0 0 0 0 0 0 1 2 4 6 7 6 7 8 7 4 3
4 4 5 4 3 3 6 8 8 7 6 5 4 4 3 3 2 2 1 0 0 0 0 0 0 0 0 0 0 0 0 0 0 0 1 2 3 3 4 6 8 8 5
1 1 2 2 0 0 2 4 5 5 4 4 4 4 3 3 3 3 2 0 0 0 0 0 0 0 0 0 0 0 0 0 0 0 0 1 1 1 2 3 5 7 6
0 0 0 0 0 0 0 1 3 3 3 3 4 3 3 3 3 3 1 0 0 0 0 0 0 0 0 0 0 0 0 0 0 0 0 0 0 0 1 1 2 3 4
0 0 0 0 0 0 0 0 1 2 3 3 3 3 3 3 3 2 1 0 0 0 0 0 0 0 0 0 0 0 0 0 0 0 0 0 0 0 0 0 0 1 1
0 0 0 0 0 0 0 0 0 1 2 2 3 3 3 3 3 3 1 0 0 0 0 0 0 0 0 0 0 0 0 0 0 0 0 0 0 0 0 0 0 0 0
0 0 0 0 0 0 0 0 0 0 1 1 1 2 2 3 4 3 1 0 0 0 0 0 0 0 0 0 0 0 0 0 0 0 0 0 0 0 0 0 0 0 0
0 0 0 0 0 0 0 0 0 0 0 0 0 1 1 2 3 3 2 0 0 0 0 0 0 0 0 0 0 0 0 0 0 0 0 0 0 0 0 0 0 0 0
0 0 0 0 0 0 0 0 0 0 0 0 0 0 0 1 1 2 2 1 0 0 0 0 0 0 0 0 0 0 0 0 0 0 0 0 0 0 0 0 0 0 0
0 0 0 0 0 0 0 0 0 0 0 0 0 0 0 0 0 1 2 1 1 0 0 0 0 0 0 0 0 0 0 0 0 0 0 0 0 0 0 0 0 0 0
0 0 0 0 0 0 0 0 0 0 0 0 0 0 0 0 0 1 2 2 2 1 0 0 0 0 0 0 0 0 0 0 0 0 0 0 0 0 0 0 0 0 0
0 0 0 0 0 0 0 0 0 0 0 0 0 0 0 0 0 0 1 1 2 1 0 0 0 0 0 0 0 0 0 0 0 0 0 0 0 0 0 0 0 0 0
0 0 0 0 0 0 0 0 0 0 0 0 0 0 0 0 0 0 0 0 1 1 0 0 0 0 0 0 0 0 0 0 0 0 0 0 0 0 0 0 0 0 0
0 0 0 0 0 0 0 0 0 0 0 0 0 0 0 0 0 0 0 0 0 0 0 0 0 0 0 0 0 0 0 0 0 0 0 0 0 0 0 0 0 0 0
0 0 0 0 0 0 0 0 0 0 0 0 0 0 0 0 0 0 0 0 1 0 0 0 0 0 0 0 0 0 0 0 0 0 0 0 0 0 0 0 0 0 0
0 0 0 0 0 0 0 0 0 0 0 0 0 0 0 0 0 0 0 0 1 0 0 0 0 0 0 0 0 0 0 0 0 0 0 0 0 0 0 0 0 0 0

GEFSMA_con_prob3kmehi_192.txt.gz
EHI
10 11 11 9 8 9 10 9 6 4 3 2 2 2 2 1 1 1 1 1 1 0 1 2 3 5 7 7 8 6 4 4 3 1 1 1 0 0 1 3 3 1 0
9 9 9 7 6 8 8 7 5 4 3 2 2 2 1 0 0 0 1 2 2 1 0 1 3 5 5 7 8 7 5 4 4 2 1 0 0 0 0 1 1 0 0
7 7 5 3 4 6 6 4 2 1 1 1 1 1 0 0 0 0 0 1 2 2 1 1 3 4 5 5 6 7 6 5 5 3 1 0 0 0 0 0 0 0 0
6 4 2 1 3 5 5 3 1 0 0 0 0 0 0 0 0 0 0 0 1 1 1 1 2 4 4 4 4 5 6 5 5 3 1 0 0 0 0 0 0 0 0
3 3 2 2 2 4 4 3 1 0 0 0 0 0 0 0 0 0 0 0 0 0 0 1 2 3 3 3 3 3 4 3 2 2 1 0 0 0 0 0 0 0 0
2 3 2 2 3 4 4 4 3 1 0 0 0 0 0 0 0 0 0 0 0 0 0 1 3 4 2 2 2 2 2 2 1 1 0 0 0 0 0 0 0 0 0
3 3 2 3 5 5 3 3 4 3 2 1 1 0 0 0 0 0 0 0 0 0 0 1 4 4 3 2 1 1 2 2 2 1 0 0 0 0 0 0 0 0 0
3 3 3 4 5 5 3 3 4 5 4 2 1 0 0 0 0 0 0 0 0 0 0 0 2 3 2 1 0 1 2 2 3 3 2 1 0 0 0 0 0 0 0
1 2 3 4 4 4 4 4 4 5 5 3 1 0 0 0 0 0 0 0 0 0 0 0 0 1 1 1 0 0 1 1 2 4 4 3 1 1 1 0 0 0 0
0 1 3 3 4 4 4 4 3 4 4 3 1 0 0 0 0 0 0 0 0 0 0 0 0 0 0 0 0 0 0 0 1 2 3 3 2 1 1 0 0 0 0
0 1 3 3 3 3 3 2 2 2 2 2 1 0 0 0 0 0 0 0 0 0 0 0 0 0 0 0 0 0 0 0 0 0 1 1 1 1 1 0 0 0 0
1 1 2 2 2 1 1 1 0 1 1 1 1 0 0 0 0 0 0 0 0 0 0 0 0 0 0 0 0 0 0 0 0 0 0 0 0 1 1 1 0 0 0
0 1 1 1 1 0 0 0 0 0 0 0 0 0 0 0 0 0 0 0 0 0 0 0 0 0 0 0 0 0 0 0 0 0 0 0 0 1 2 1 0 0 0
0 0 0 0 0 0 0 0 0 0 0 0 0 0 0 0 0 0 0 0 0 0 0 0 0 1 1 1 0 0 0 0 0 0 0 0 0 1 1 1 0 0 0
0 0 0 0 0 0 0 0 0 0 0 0 0 0 0 0 0 0 0 0 0 0 0 0 1 2 2 1 0 0 0 0 0 0 0 0 0 0 0 0 0 0 0
0 0 0 0 0 0 0 0 0 0 0 0 0 0 0 0 0 0 0 0 0 0 0 0 1 2 2 1 0 0 0 0 0 0 0 0 0 0 0 0 0 0 0
0 0 0 0 0 0 0 0 0 0 0 0 0 0 0 0 0 0 1 0 0 0 0 0 0 1 1 0 0 0 0 0 0 0 0 0 0 0 0 0 0 0 0
0 0 0 0 0 0 0 0 0 0 0 0 0 0 0 0 0 0 0 0 0 0 0 0 0 0 0 0 0 0 0 0 0 0 0 0 0 0 0 0 0 0 0
0 0 0 0 0 0 0 0 0 0 0 0 0 0 0 0 0 0 0 0 0 0 0 0 0 0 0 0 0 0 0 0 0 0 0 0 0 0 0 0 0 0 0
0 0 0 0 0 0 0 0 0 0 0 0 0 0 0 0 0 0 0 0 0 0 0 0 0 0 0 0 0 0 0 0 0 0 0 0 0 0 0 0 0 0 0
0 0 0 0 0 0 0 0 0 0 0 0 0 0 0 0 0 0 0 0 0 0 0 0 0 0 0 0 0 0 0 0 0 0 0 0 0 0 0 0 0 0 0
0 0 0 0 0 0 0 0 0 0 0 0 0 0 0 0 0 0 0 0 0 0 0 0 0 0 0 0 0 0 0 0 0 0 0 0 0 0 0 0 0 0 0
0 0 0 0 0 0 0 0 0 0 0 0 0 0 0 0 0 0 0 0 0 0 0 0 0 0 0 0 0 0 0 0 0 0 0 0 0 0 0 0 0 0 0
0 0 0 0 0 0 0 0 0 0 0 0 0 0 0 0 0 0 0 0 0 0 0 0 0 0 0 0 0 0 0 0 0 0 0 0 0 0 0 0 0 0 0
0 0 0 0 0 0 0 0 0 0 0 0 0 0 0 0 0 0 0 0 0 0 0 0 0 0 0 0 0 0 0 0 0 0 0 0 0 0 0 0 0 0 0
0 0 0 0 0 0 0 0 0 0 0 0 0 0 0 0 0 0 0 0 0 0 0 0 0 0 0 0 0 0 0 0 0 0 0 0 0 0 0 0 0 0 0

GEFSMA_con_prob3kmehi_198.txt.gz
EHI
21 19 16 14 13 14 14 13 12 13 12 9 6 5 2 2 2 3 3 4 3 2 1 1 1 1 1 1 1 3 4 3 2 2 2 1 0 0 0 0 0 0 0
23 19 15 14 14 13 14 14 13 13 11 9 6 4 3 2 2 2 2 2 4 3 3 3 3 2 1 0 1 3 5 4 3 2 2 2 1 0 0 0 0 0 0
25 21 16 14 14 15 17 16 14 12 12 10 6 4 4 4 3 2 2 2 3 3 3 4 5 3 1 0 1 3 5 6 4 3 3 4 2 0 0 0 0 0 0
22 21 17 14 15 16 17 16 13 11 11 11 7 5 6 6 4 3 3 3 3 3 4 4 4 4 2 1 1 3 6 7 6 5 5 6 5 2 0 0 0 0 0
16 16 13 12 13 15 14 13 12 10 9 9 7 5 6 6 5 4 3 3 4 4 4 4 4 4 3 2 3 4 6 6 6 6 7 8 7 4 1 0 0 0 0
11 10 10 11 12 14 13 12 12 10 8 8 6 4 4 5 5 4 3 3 3 4 3 3 5 5 4 5 6 5 5 6 7 7 7 8 7 4 1 0 0 0 0
6 6 8 11 14 14 13 12 12 10 8 8 7 5 4 4 4 3 3 3 3 3 2 3 4 5 6 8 8 6 5 5 6 7 8 9 7 3 1 0 0 0 0
4 4 5 10 13 15 13 13 14 11 8 8 9 7 6 5 3 2 3 4 2 1 1 1 2 3 5 7 8 7 5 4 5 7 11 11 8 4 1 0 0 0 0
6 5 6 8 11 13 13 14 15 14 10 8 9 8 6 5 3 3 3 3 2 0 0 0 0 1 3 5 6 5 3 3 4 6 11 11 8 4 2 0 0 0 0
7 7 7 8 9 10 11 12 12 14 11 8 7 6 4 4 4 4 3 3 2 1 1 1 1 2 5 6 6 5 2 1 1 4 7 8 6 4 2 1 1 1 0
6 6 7 9 9 9 9 9 10 11 10 8 6 5 2 2 3 4 3 2 1 1 2 3 4 6 8 8 6 3 2 0 0 1 3 5 5 4 3 3 3 2 1
4 5 6 8 9 7 7 7 7 6 6 7 6 4 1 1 3 3 3 2 1 1 3 5 5 7 8 7 4 2 1 0 0 0 1 3 4 4 3 4 5 4 2
2 3 4 5 5 5 4 5 4 3 3 3 3 2 0 1 3 3 3 3 3 3 5 5 4 4 6 6 4 1 0 0 0 0 0 1 3 3 3 4 5 4 3
1 1 2 2 2 2 2 2 3 3 3 2 1 0 0 0 1 2 3 3 3 4 5 4 2 2 5 6 3 0 0 0 0 0 0 0 1 2 2 3 3 2 2
0 0 0 0 1 1 1 2 2 2 3 3 1 0 0 0 0 1 2 2 2 2 2 2 2 1 4 4 2 1 1 1 0 0 0 0 0 1 1 1 1 0 1
0 0 0 0 0 0 1 1 1 1 1 1 0 0 0 0 0 1 1 1 1 1 1 1 1 2 3 2 1 2 2 1 0 0 0 0 0 0 0 0 0 0 0
0 0 0 0 0 0 0 0 0 0 0 0 0 0 0 0 0 0 0 0 1 2 1 1 2 3 3 2 1 2 1 0 0 0 0 0 0 0 0 0 0 0 0
0 0 0 0 0 0 0 0 0 0 0 0 0 0 0 0 0 0 0 1 2 2 1 1 2 2 1 1 1 1 1 0 1 0 0 0 0 0 0 0 0 0 0
0 0 0 0 0 0 0 0 0 0 0 0 0 0 0 0 0 0 0 1 1 1 1 1 1 0 0 0 0 0 0 0 0 0 0 0 0 0 0 0 0 0 0
0 0 0 0 0 0 0 0 0 0 0 0 0 0 0 0 0 0 0 0 0 0 0 1 1 1 0 0 0 0 0 0 0 0 0 0 0 0 0 0 0 0 0
0 0 0 0 0 0 0 0 0 0 0 0 0 0 0 0 0 0 0 0 0 0 0 1 1 1 0 0 0 0 0 0 0 0 0 0 0 0 0 0 0 0 0
0 0 0 0 0 0 0 0 0 0 0 0 0 0 0 0 0 0 0 0 0 0 0 0 0 0 0 0 0 0 0 0 0 0 0 0 0 0 0 0 0 0 0
1 0 0 0 1 1 0 0 0 0 0 0 0 0 0 0 0 0 0 0 0 0 0 0 0 0 0 0 0 0 0 0 0 0 0 0 0 0 0 0 0 0 0
1 0 0 1 1 1 0 0 0 0 0 0 0 0 0 0 0 0 0 0 0 0 0 0 0 0 0 0 0 0 0 0 0 0 0 0 0 0 0 0 0 0 0
1 0 0 0 1 1 1 0 0 0 0 0 0 0 0 0 0 0 0 0 0 0 0 0 0 0 0 0 0 0 0 0 0 0 0 0 0 0 0 0 0 0 0
0 0 0 0 1 2 1 0 0 0 0 0 0 0 0 0 0 0 0 0 0 0 0 0 0 0 0 0 0 0 0 0 0 0 0 0 0 0 0 0 0 0 0

GEFSMA_con_prob3kmehi_204.txt.gz
EHI
25 24 26 27 24 21 22 21 19 17 14 9 5 4 5 6 7 8 11 19 24 22 17 15 14 13 14 16 17 16 15 14 14 16 18 17 15 14 12 11 9 8 9
27 28 30 30 24 19 19 20 19 18 15 11 8 6 6 7 8 9 10 14 18 19 19 18 16 15 16 17 18 17 15 14 15 16 17 17 16 14 12 10 8 7 7
30 32 34 33 27 21 20 22 23 21 16 13 10 9 9 8 9 10 10 9 9 13 17 18 17 18 18 17 17 16 14 14 15 16 16 15 15 14 12 9 8 6 6
29 31 32 32 30 26 23 24 24 21 16 11 9 9 9 9 10 11 10 8 6 7 10 12 14 16 16 16 15 14 13 14 15 16 15 14 13 12 10 8 7 5 4
25 25 25 26 28 27 23 20 20 18 13 9 6 6 8 9 11 10 8 8 7 6 6 7 9 11 12 13 14 13 12 13 14 16 16 15 14 11 8 7 7 4 2
19 18 17 18 22 22 19 18 17 14 12 8 5 4 5 7 9 8 6 6 6 6 5 5 7 8 8 9 12 11 10 11 14 16 17 17 15 11 7 6 5 4 3
14 13 12 13 16 17 16 18 18 14 11 9 6 4 3 4 5 6 5 4 3 4 4 5 8 10 8 6 8 8 7 9 13 15 16 16 15 12 9 6 5 4 4
12 11 11 11 12 14 16 18 18 14 10 9 8 6 4 3 3 3 3 2 2 3 4 5 9 12 10 6 5 6 5 7 11 13 14 14 14 13 11 9 7 5 4
11 10 10 9 9 11 14 15 15 14 11 9 9 8 6 4 2 2 2 1 1 2 3 3 7 12 12 9 6 4 3 5 9 11 12 11 10 11 12 10 7 5 4
8 8 8 6 6 7 10 12 13 13 12 10 10 10 6 4 2 2 2 1 1 2 1 2 4 8 10 10 7 4 1 2 6 7 8 8 7 7 9 8 6 4 4
6 6 6 5 4 6 9 11 12 12 11 10 10 9 4 1 1 1 1 1 1 1 1 2 4 6 7 8 6 3 1 1 2 3 3 5 6 5 6 6 6 6 5
6 6 5 5 6 7 9 11 12 11 10 9 8 6 2 0 1 1 1 0 0 0 2 5 6 6 5 4 3 1 0 0 0 0 1 2 4 5 5 5 7 7 6
6 6 3 3 6 8 8 8 10 11 10 7 5 3 1 0 2 3 1 0 0 0 2 4 6 6 4 2 1 0 0 0 0 0 0 0 2 3 3 4 5 6 6
5 4 3 2 4 4 5 6 7 8 7 5 3 2 1 2 4 5 3 1 0 0 1 2 4 4 3 2 1 0 0 0 0 0 0 0 0 1 2 3 4 4 4
4 3 3 3 3 3 4 4 4 4 3 2 1 1 2 3 4 5 3 1 0 0 1 1 1 2 2 2 1 0 0 0 0 0 0 0 0 0 1 2 2 2 2
4 4 3 3 3 3 4 2 1 1 1 1 0 0 1 2 2 2 1 0 0 1 1 1 0 0 1 2 1 1 1 1 0 0 0 0 0 0 0 1 1 1 1
7 5 3 2 1 2 1 1 0 0 0 0 0 0 0 1 1 0 0 0 1 1 1 0 0 0 1 2 2 2 2 1 0 0 0 0 0 0 0 0 0 0 0
9 6 3 1 0 0 0 0 0 0 0 0 0 0 0 0 0 0 1 1 1 1 1 0 0 1 2 3 3 3 2 1 0 0 0 0 0 0 0 0 0 0 0
9 7 4 1 0 0 0 0 0 0 0 0 0 0 0 0 0 0 1 2 2 2 1 1 1 1 3 3 3 2 2 1 0 0 0 0 0 0 0 0 0 0 0
8 7 5 2 0 0 0 0 0 0 0 0 0 0 0 0 0 0 0 1 1 1 1 1 2 3 3 3 1 1 1 0 0 0 0 0 0 0 0 0 0 0 0
6 6 4 1 0 0 0 0 0 0 0 0 0 0 0 0 0 0 0 0 0 0 0 1 2 3 3 3 1 0 0 0 0 0 0 0 0 0 0 0 0 0 0
6 5 3 1 0 0 0 0 0 0 0 0 0 0 0 0 0 0 0 0 0 0 0 1 2 3 3 3 2 1 0 0 0 0 0 0 0 0 0 0 0 0 0
7 5 3 1 0 0 0 0 0 0 0 0 0 0 0 0 0 0 0 0 0 0 0 0 1 1 2 2 1 1 0 0 0 0 0 0 0 0 0 0 0 0 0
6 6 4 2 1 0 0 0 0 0 0 0 0 0 0 0 0 0 0 0 0 0 0 0 0 0 0 0 0 0 0 0 0 0 0 0 0 0 0 0 0 0 0
7 7 5 2 1 0 0 0 0 0 0 0 0 0 0 0 0 0 0 0 0 0 0 0 0 0 0 0 0 0 0 0 0 0 0 0 0 0 0 0 0 0 0
9 7 5 2 0 0 0 0 0 0 0 0 0 0 0 0 0 0 0 0 0 0 0 0 0 0 0 0 0 0 0 0 0 0 0 0 0 0 0 0 0 0 0

GEFSMA_con_prob3kmehi_210.txt.gz
EHI
8 8 8 6 6 8 7 4 2 2 2 2 1 0 0 0 0 0 1 4 10 16 17 17 16 13 11 9 9 10 10 9 8 9 8 6 4 5 6 5 4 3 2
5 6 6 4 3 3 4 2 1 1 1 1 1 0 0 0 0 0 0 3 8 13 16 18 16 14 11 9 9 9 10 10 10 9 7 5 4 4 5 5 4 3 2
2 3 3 1 0 0 1 1 0 0 0 0 0 0 0 0 0 0 0 1 3 7 12 16 16 14 12 9 8 7 8 10 10 10 8 5 4 4 4 5 4 2 2
1 2 1 0 0 0 0 0 0 0 0 0 0 0 0 0 0 0 0 0 0 2 5 9 12 12 11 9 7 7 8 10 11 10 8 6 5 4 4 4 4 3 2
0 1 1 0 0 0 0 0 0 0 0 0 0 0 0 0 0 0 0 0 0 0 1 3 6 8 7 6 7 7 8 11 12 10 7 5 5 4 4 3 4 4 2
0 0 0 0 0 0 0 0 0 0 0 0 0 0 0 0 0 0 0 0 0 0 0 0 2 3 3 4 5 7 8 11 12 10 7 5 5 4 3 3 3 3 2
0 0 0 0 0 0 0 0 0 0 0 0 0 0 0 0 0 0 0 0 0 0 0 0 0 0 0 1 3 5 7 9 11 9 7 5 4 3 3 3 3 3 2
0 0 0 0 0 0 0 0 0 0 0 0 0 0 0 0 0 0 0 0 0 0 0 0 0 0 0 0 1 2 5 7 8 7 6 4 3 2 2 3 3 2 1
0 0 0 0 0 0 0 0 0 0 0 0 0 0 0 0 0 0 0 0 0 0 0 0 0 0 0 0 0 0 1 3 4 4 5 4 3 1 1 2 3 3 2
0 0 0 0 0 0 0 0 0 0 0 0 0 0 0 0 0 0 0 0 0 0 0 0 0 0 0 0 0 0 0 0 1 2 3 3 3 2 1 1 2 3 3
0 0 0 0 0 0 0 0 0 0 0 0 0 0 0 0 0 0 0 0 0 0 0 0 0 0 0 0 0 0 0 0 0 1 2 3 3 3 1 0 0 1 2
0 0 0 0 0 0 0 0 0 0 0 0 0 0 0 0 0 0 0 0 0 0 0 0 0 0 0 0 0 0 0 0 0 0 1 2 3 3 2 0 0 0 1
0 0 0 0 0 0 0 0 0 0 0 0 0 0 0 0 0 0 0 0 0 0 0 0 0 0 0 0 0 0 0 0 0 0 0 1 2 2 1 0 0 0 0
0 0 0 0 0 0 0 0 0 0 0 0 0 0 0 0 0 0 0 0 0 0 0 0 0 0 0 0 0 0 0 0 0 0 0 0 1 1 0 0 0 0 0
0 0 0 0 0 0 0 0 0 0 0 0 0 0 0 0 0 0 0 0 0 0 0 0 0 0 0 0 0 0 0 0 0 0 0 0 0 0 0 0 0 0 0
0 0 0 0 0 0 0 0 0 0 0 0 0 0 0 0 0 0 0 0 0 0 0 0 0 0 0 0 0 0 0 0 0 0 0 0 0 0 0 0 0 0 0
0 0 0 0 0 0 0 0 0 0 0 0 0 0 0 0 0 0 0 0 0 0 0 0 0 0 0 0 0 0 0 0 0 0 0 0 0 0 0 0 0 0 0
0 0 0 0 0 0 0 0 0 0 0 0 0 0 0 0 0 0 0 0 0 0 0 0 0 0 0 0 0 0 0 0 0 0 0 0 0 0 0 0 0 0 0
0 0 0 0 0 0 0 0 0 0 0 0 0 0 0 0 0 0 0 0 0 0 0 0 0 0 0 0 0 0 0 0 0 0 0 0 0 0 0 0 0 0 0
0 0 0 0 0 0 0 0 0 0 0 0 0 0 0 0 0 0 0 0 0 0 0 0 0 0 0 0 0 0 0 0 0 0 0 0 0 0 0 0 0 0 0
0 0 0 0 0 0 0 0 0 0 0 0 0 0 0 0 0 0 0 0 0 0 0 0 0 0 0 0 0 0 0 0 0 0 0 0 0 0 0 0 0 0 0
0 0 0 0 0 0 0 0 0 0 0 0 0 0 0 0 0 0 0 0 0 0 0 0 0 0 0 0 0 0 0 0 0 0 0 0 0 0 0 0 0 0 0
0 0 0 0 0 0 0 0 0 0 0 0 0 0 0 0 0 0 0 0 0 0 0 0 0 0 0 0 0 0 0 0 0 0 0 0 0 0 0 0 0 0 0
0 0 0 0 0 0 0 0 0 0 0 0 0 0 0 0 0 0 0 0 0 0 0 0 0 0 0 0 0 0 0 0 0 0 0 0 0 0 0 0 0 0 0
0 0 0 0 0 0 0 0 0 0 0 0 0 0 0 0 0 0 0 0 0 0 0 0 0 0 0 0 0 0 0 0 0 0 0 0 0 0 0 0 0 0 0
0 0 0 0 0 0 0 0 0 0 0 0 0 0 0 0 0 0 0 0 0 0 0 0 0 0 0 0 0 0 0 0 0 0 0 0 0 0 0 0 0 0 0

GEFSMA_con_prob3kmehi_216.txt.gz
EHI
13 13 14 14 13 14 14 11 10 9 6 2 1 2 3 4 4 4 2 3 4 4 3 2 1 2 4 2 2 5 6 6 5 6 8 9 9 7 5 4 2 1 0
12 13 13 12 11 11 10 8 6 6 4 2 1 1 2 3 4 4 2 2 3 3 3 2 2 4 4 3 3 4 5 5 4 5 6 7 8 7 5 4 2 1 1
9 9 9 8 7 7 7 5 3 2 1 1 0 0 1 3 3 3 3 3 3 2 2 1 2 5 5 3 3 3 4 5 4 4 4 6 6 6 5 4 3 4 4
5 5 4 4 4 4 5 3 1 0 0 0 0 0 1 2 3 3 3 3 2 2 1 1 2 4 5 4 3 4 4 5 5 5 5 5 6 7 7 6 5 5 5
2 2 2 2 2 2 3 2 1 0 0 0 0 0 1 1 2 2 2 2 1 1 0 1 1 2 4 5 4 4 3 5 6 7 7 5 6 8 8 6 5 4 2
0 0 0 0 0 1 1 1 1 0 0 0 0 0 0 0 0 0 1 1 0 0 0 0 0 1 2 4 3 2 1 2 5 8 8 6 7 8 7 5 4 3 1
0 0 0 0 0 0 0 0 0 0 0 0 0 0 0 0 0 0 0 0 0 0 0 0 0 0 0 1 1 1 0 1 3 5 7 7 7 6 5 5 4 3 1
0 0 0 0 0 0 0 0 0 0 0 0 0 0 0 0 0 0 0 0 0 0 0 0 0 0 0 0 0 0 0 1 1 3 6 7 6 5 4 4 4 3 2
0 0 0 0 0 0 0 0 0 0 0 0 0 0 0 0 0 0 0 0 0 0 0 0 0 0 0 0 0 0 0 0 0 2 5 6 5 4 4 3 3 3 3
0 0 0 0 0 0 0 0 0 0 0 0 0 0 0 0 0 0 0 0 0 0 0 0 0 0 0 0 0 0 0 0 0 1 2 4 4 4 4 4 4 4 4
0 0 0 0 0 0 0 0 0 0 0 0 0 0 0 0 0 0 0 0 0 0 0 0 0 0 0 0 0 0 0 0 0 0 0 1 2 3 4 4 4 5 5
0 0 0 0 0 0 0 0 0 0 0 0 0 0 0 0 0 0 0 0 0 0 0 0 0 0 1 1 0 0 0 0 0 0 0 0 1 2 3 3 4 4 4
0 0 0 0 0 0 0 0 0 0 0 0 0 0 0 0 0 0 0 0 0 0 0 0 0 0 1 2 1 0 0 0 0 0 0 0 0 1 1 2 2 2 2
0 0 0 0 0 0 0 0 0 0 0 0 0 0 0 0 0 0 0 0 0 0 0 0 0 0 1 1 1 0 0 0 0 0 0 0 0 0 0 1 1 1 1
0 0 0 0 0 0 0 0 0 0 0 0 0 0 0 0 0 0 0 0 0 0 0 0 0 0 0 0 0 0 0 0 0 0 0 0 0 0 0 0 0 1 1
0 0 0 0 0 0 0 0 0 0 0 0 0 0 0 0 0 0 0 0 0 0 0 0 0 0 0 0 0 0 0 0 0 0 0 0 0 0 0 0 0 0 0
0 0 0 0 0 0 0 0 0 0 0 0 0 0 0 0 0 0 0 0 0 0 0 0 0 0 0 0 0 0 0 0 0 0 0 0 0 0 0 0 0 0 0
0 0 0 0 0 0 0 0 0 0 0 0 0 0 0 0 0 0 0 0 0 0 0 0 0 0 0 0 0 0 0 0 0 0 0 0 0 0 0 0 0 0 0
0 0 0 0 0 0 0 0 0 0 0 0 0 0 0 0 0 0 0 0 0 0 0 0 0 0 0 0 0 0 0 0 0 0 0 0 0 0 0 0 0 0 0
0 0 0 0 0 0 0 0 0 0 0 0 0 0 0 0 0 0 0 0 0 0 0 0 0 0 0 0 0 0 0 0 0 0 0 0 0 0 0 0 0 0 0
0 0 0 0 0 0 0 0 0 0 0 0 0 0 0 0 0 0 0 0 0 0 0 0 0 0 0 0 0 0 0 0 0 0 0 0 0 0 0 0 0 0 0
1 0 0 0 0 0 0 0 0 0 0 0 0 0 0 0 0 0 0 0 0 0 0 0 0 0 0 0 0 0 0 0 0 0 0 0 0 0 0 0 0 0 0
2 1 0 0 0 0 0 0 0 0 0 0 0 0 0 0 0 0 0 0 0 0 0 0 0 0 0 0 0 0 0 0 0 0 0 0 0 0 0 0 0 0 0
3 2 1 1 0 0 0 0 0 0 0 0 0 0 0 0 0 0 0 0 0 0 0 0 0 0 0 0 0 0 0 0 0 0 0 0 0 0 0 0 0 0 0
3 3 3 2 1 1 0 0 0 0 0 0 0 0 0 0 0 0 0 0 0 0 0 0 0 0 0 0 0 0 0 0 0 0 0 0 0 0 0 0 0 0 0
2 3 3 3 2 2 1 0 0 0 0 0 0 0 0 0 0 0 0 0 0 0 0 0 0 0 0 0 0 0 0 0 0 0 0 0 0 0 0 0 0 0 0

GEFSMA_con_prob3kmehi_222.txt.gz
EHI
17 18 18 18 15 13 14 13 9 6 7 6 4 2 1 0 0 1 4 7 7 5 3 1 0 1 3 6 7 5 6 9 9 8 9 12 11 12 14 15 12 9 8
14 14 13 14 13 11 11 12 11 9 7 5 3 1 1 1 1 1 2 3 5 5 4 2 1 0 2 4 5 4 4 6 6 8 10 11 10 9 12 13 10 8 8
11 11 10 10 10 10 10 11 11 10 7 4 2 2 3 4 4 2 1 0 2 3 4 4 3 1 2 3 3 3 4 4 4 6 8 8 7 7 8 9 8 7 7
8 9 10 9 7 8 10 11 11 10 6 4 4 5 8 9 6 3 1 1 2 3 4 5 5 3 3 4 4 4 4 4 3 4 5 6 7 8 8 8 7 6 6
5 7 8 8 8 7 8 10 11 10 8 5 4 6 10 11 8 4 2 4 5 5 5 6 5 4 3 3 3 3 3 3 2 2 3 5 7 9 8 5 4 4 5
4 5 6 8 9 9 9 10 10 9 9 7 5 6 9 10 9 7 5 6 7 6 6 6 4 3 1 1 2 2 2 2 1 1 2 4 6 7 5 3 1 2 2
4 4 5 7 8 9 10 9 9 9 9 8 7 7 8 10 9 8 7 6 4 4 4 4 3 2 1 0 1 2 2 2 2 2 2 2 3 4 3 1 1 0 1
3 3 4 6 7 8 8 7 7 8 8 8 8 7 7 8 7 6 5 3 2 2 2 2 2 1 1 0 0 1 1 2 3 3 2 2 2 2 2 2 1 1 1
3 3 4 5 6 6 6 5 5 6 8 8 7 5 5 6 6 5 2 1 1 3 2 1 1 1 1 0 0 0 0 1 2 2 2 2 2 1 1 1 1 1 2
4 3 3 4 4 4 4 4 4 5 7 8 6 4 4 4 4 4 3 3 3 3 3 2 1 1 0 0 0 0 0 0 1 1 1 1 1 1 0 0 0 1 1
5 4 3 3 3 3 3 4 3 4 6 7 6 5 5 5 3 3 4 4 5 4 3 3 2 1 0 0 0 0 0 0 0 0 0 0 0 0 0 0 0 0 0
5 4 3 3 3 3 4 4 3 3 4 6 7 6 5 6 5 4 3 4 5 4 3 3 3 2 1 1 1 0 0 0 0 0 0 0 0 0 0 0 0 0 0
4 4 4 3 3 3 3 2 1 2 4 7 7 6 6 7 7 5 3 3 4 3 2 2 1 1 1 2 2 1 0 0 0 0 0 0 0 0 0 0 0 0 0
3 3 3 3 3 3 2 1 0 1 4 5 6 6 7 8 8 7 5 4 4 3 2 1 0 0 1 2 2 1 0 0 0 0 0 0 0 0 0 0 0 0 0
3 2 3 3 3 3 2 1 0 1 2 3 5 6 7 6 7 8 8 6 4 4 3 1 0 1 1 1 1 0 0 0 0 0 0 0 0 0 0 0 0 0 0
3 3 3 3 3 3 3 2 1 0 1 2 3 4 4 4 6 7 8 7 6 5 4 2 2 1 1 0 0 0 0 0 0 0 0 0 0 0 0 0 0 0 0
4 4 4 4 4 4 4 3 1 0 0 0 1 1 1 2 4 5 6 6 5 5 5 3 3 2 1 0 0 1 0 0 0 0 0 0 0 0 0 0 0 0 0
6 6 6 6 5 5 4 3 1 0 0 0 0 0 0 1 2 3 4 3 2 3 3 3 4 4 2 0 0 0 0 0 0 0 0 0 0 0 0 0 0 0 0
7 7 7 7 6 5 4 3 2 1 1 1 1 0 0 0 1 1 1 0 0 1 1 2 4 5 3 1 0 0 0 0 0 0 0 0 0 0 0 0 0 0 0
7 7 6 6 6 5 4 3 3 3 2 2 2 1 1 0 0 0 0 0 0 0 0 1 4 4 3 1 0 0 0 0 0 0 0 0 0 0 0 0 0 0 0
5 5 4 3 4 4 3 3 3 3 3 3 3 3 2 1 0 0 0 0 0 0 0 1 2 3 2 2 1 1 0 0 0 0 0 0 0 0 0 0 0 0 0
3 2 1 1 2 2 2 1 1 2 3 3 3 3 3 1 0 0 0 0 0 0 0 0 1 1 1 1 1 1 1 0 0 0 0 0 0 0 0 0 0 0 0
1 0 0 0 1 1 1 0 0 1 1 2 3 3 3 2 1 1 1 0 0 0 0 0 0 0 0 1 1 1 2 1 1 1 0 0 0 0 0 0 0 0 0
0 0 0 0 1 1 1 0 0 0 0 1 1 2 3 3 2 2 1 0 0 0 0 0 0 0 0 2 3 3 3 3 2 1 1 0 0 0 0 0 0 0 0
0 0 0 0 1 1 1 0 0 0 0 0 0 1 1 2 1 1 1 0 0 0 0 0 0 0 0 1 2 2 2 3 2 1 1 1 0 0 0 0 0 0 0
0 0 0 0 0 1 0 0 0 0 0 0 0 0 0 1 0 0 0 0 0 0 0 0 0 0 0 0 0 1 1 2 2 1 0 1 0 0 0 0 0 0 0

GEFSMA_con_prob3kmehi_228.txt.gz
EHI
21 21 23 22 19 15 14 11 8 7 7 5 5 6 5 2 1 2 8 19 25 22 17 12 10 9 9 8 7 7 9 9 6 3 3 5 5 2 1 2 5 4 3
21 20 20 20 18 15 15 13 10 9 9 7 7 7 7 4 3 4 7 13 20 21 18 14 12 10 8 7 6 6 8 8 6 4 3 4 4 3 2 2 3 3 1
22 20 17 14 14 14 14 14 12 11 10 9 9 9 8 6 6 7 6 7 10 14 15 15 15 13 10 8 6 7 9 9 7 5 4 4 4 5 4 3 3 2 1
20 20 16 11 10 10 11 12 12 11 10 8 8 8 7 7 7 7 5 3 5 8 10 13 15 15 13 11 9 9 10 9 6 5 5 4 5 5 6 4 3 2 2
18 18 15 11 10 9 10 10 10 10 9 6 4 4 5 7 8 7 4 4 7 9 10 11 13 15 14 14 12 10 9 6 4 3 3 3 3 4 4 3 1 1 1
16 15 13 10 9 10 10 9 9 10 8 4 1 1 3 7 9 7 5 6 10 12 10 10 10 11 12 14 14 12 9 6 3 2 2 2 1 1 1 1 0 0 0
14 12 9 8 8 9 10 9 8 8 6 3 1 1 2 4 6 6 6 7 8 9 9 7 7 7 8 9 12 13 12 9 5 3 2 1 0 0 0 0 0 0 0
13 9 7 7 8 8 9 9 8 6 4 3 2 2 1 2 3 4 5 7 7 8 7 5 6 6 4 3 6 9 10 10 7 5 3 2 1 0 0 0 0 0 0
10 8 6 7 8 8 8 8 7 6 4 3 3 2 1 2 3 4 4 5 7 7 6 4 5 6 4 2 3 4 5 6 7 7 5 3 1 0 0 0 0 0 0
9 7 6 7 8 8 7 7 7 7 4 3 2 1 1 2 3 3 2 3 4 5 4 3 4 5 6 4 3 2 2 2 4 6 6 4 2 1 0 0 0 0 0
8 7 6 7 7 8 7 7 7 6 4 3 2 1 1 2 2 1 0 0 1 2 3 3 4 5 7 5 2 1 1 1 2 4 5 4 3 2 1 0 0 0 0
8 8 7 7 7 7 7 7 7 5 4 3 2 1 1 1 1 0 0 0 0 2 4 4 4 6 5 2 0 0 0 0 1 1 2 3 3 2 1 0 0 0 0
9 9 8 8 7 7 6 6 5 4 3 3 2 1 1 1 1 0 0 0 1 3 4 4 4 5 3 1 0 0 0 0 0 0 1 1 2 2 1 0 0 0 0
8 9 9 9 8 7 6 5 4 3 3 3 2 1 0 0 0 0 0 0 1 2 3 3 3 4 3 1 0 0 0 0 0 0 0 0 1 1 0 0 0 0 0
8 9 9 8 7 6 5 5 4 4 4 4 3 1 0 0 0 0 0 0 0 1 1 3 3 3 3 1 0 0 0 0 0 0 0 0 0 0 0 0 0 0 0
9 9 9 7 6 6 6 6 5 5 5 5 3 1 1 1 0 0 0 0 0 0 1 2 2 2 2 1 0 1 1 0 0 0 0 0 0 0 0 0 0 0 0
10 9 8 7 6 6 6 6 6 6 6 5 2 1 2 3 2 0 0 0 0 1 1 1 1 2 2 1 1 2 2 0 0 0 0 0 0 0 0 0 0 0 0
10 9 7 5 5 6 6 6 6 6 5 4 3 2 3 4 3 1 1 1 1 2 2 1 1 2 3 2 3 3 1 0 0 0 0 0 0 0 0 0 0 0 0
8 7 5 3 4 4 5 4 4 4 4 4 3 3 4 4 3 2 1 1 2 2 3 2 1 2 2 2 2 1 0 0 0 0 0 0 0 0 0 0 0 0 0
4 4 3 3 3 3 4 3 3 3 3 3 3 3 4 3 3 3 2 1 1 1 2 2 2 1 1 1 1 0 0 0 0 0 0 0 0 0 0 0 0 0 0
2 3 3 3 3 3 3 3 3 3 3 3 3 3 3 3 3 2 1 1 0 0 1 1 1 1 0 0 1 0 0 0 0 0 0 0 0 0 0 0 0 0 0
2 2 2 2 3 3 2 1 1 2 3 3 3 3 3 2 2 1 1 0 0 0 0 0 0 0 0 1 1 0 0 0 0 0 0 0 0 0 0 0 0 0 0
1 1 1 1 1 2 1 0 0 1 2 3 3 3 2 2 1 1 0 0 0 0 0 1 0 0 1 2 1 0 0 0 0 0 0 0 0 0 0 0 0 0 0
0 0 0 0 0 0 0 0 0 0 1 2 2 2 2 1 1 0 0 0 0 0 0 0 0 0 1 2 1 0 0 0 0 0 0 0 0 0 0 0 0 0 0
0 0 0 0 0 0 0 0 0 0 0 1 1 1 1 1 0 0 0 0 0 0 0 0 0 0 1 1 1 0 0 0 0 0 0 0 0 0 0 0 0 0 0
0 0 0 0 0 0 0 0 0 0 0 0 0 0 0 1 0 0 0 0 0 0 0 0 0 0 0 0 0 0 0 0 0 0 0 0 0 0 0 0 0 0 0

GEFSMA_con_prob3kmehi_234.txt.gz
EHI
3 3 3 2 2 5 7 7 4 3 3 2 1 0 0 0 0 0 1 4 9 10 9 6 7 10 12 10 8 6 6 7 7 5 2 1 1 2 2 3 3 3 3
1 2 2 2 2 4 6 6 4 3 3 2 1 0 0 0 0 0 0 2 6 9 10 9 8 11 13 11 9 8 8 8 8 6 4 1 0 1 1 2 2 3 3
1 1 1 1 1 2 3 3 3 3 2 3 2 1 0 0 0 0 0 0 2 4 8 10 11 12 13 12 10 10 9 8 7 5 4 2 1 1 0 1 2 2 2
2 1 1 1 1 1 1 1 1 2 3 3 2 1 0 0 0 0 0 0 0 1 4 8 10 11 11 11 11 10 8 7 5 5 4 4 3 2 1 1 1 2 2
3 3 2 2 2 2 1 0 0 1 2 2 1 1 0 0 0 0 0 0 0 0 1 4 6 8 9 10 11 10 9 8 7 6 6 5 3 2 2 2 2 2 2
5 4 3 3 3 3 2 1 0 0 1 1 0 0 0 0 0 0 0 0 0 0 0 1 3 5 7 9 11 11 10 10 9 8 7 4 2 1 1 1 1 1 1
6 5 4 4 4 4 3 2 1 0 0 0 0 0 0 0 0 0 0 0 0 0 0 0 1 2 4 6 8 9 9 11 11 9 6 2 1 0 0 0 0 0 0
6 6 5 5 5 4 4 3 1 1 1 0 0 0 0 0 0 0 0 0 0 0 0 0 0 0 1 2 3 5 6 7 9 9 7 3 1 1 0 0 0 0 0
6 6 6 5 4 4 3 3 3 2 2 1 0 0 0 0 0 0 0 0 0 0 0 0 0 0 0 0 0 2 3 4 6 8 8 4 2 1 0 0 0 0 0
6 6 5 4 3 3 3 3 3 3 3 2 1 0 0 0 0 0 0 0 0 0 0 0 0 0 0 0 0 1 2 3 4 6 6 4 2 1 0 0 0 0 0
4 4 4 3 3 3 3 2 3 3 3 3 2 1 0 0 0 0 0 0 0 0 0 0 0 0 0 0 0 0 1 1 2 3 4 3 3 2 1 0 0 0 0
2 3 3 3 3 3 2 1 2 3 3 3 2 1 0 0 0 0 0 0 0 0 0 0 0 0 0 0 0 0 0 0 1 1 2 3 3 3 2 1 1 0 0
3 3 3 3 3 3 3 2 2 3 3 3 2 1 0 0 0 0 0 0 0 0 0 0 0 0 0 0 0 0 0 0 0 0 1 1 2 3 3 3 2 1 0
3 3 3 3 3 3 3 3 3 3 2 1 1 0 0 0 0 0 0 0 0 0 0 0 0 0 0 0 0 0 0 0 0 0 0 0 1 2 2 2 2 1 0
3 3 3 3 3 3 3 3 3 2 1 0 0 0 0 1 0 0 0 0 0 0 0 0 0 0 0 0 0 0 0 0 0 0 0 0 0 1 1 1 1 0 0
2 2 2 2 2 2 2 2 1 1 0 0 0 0 0 0 0 0 0 0 0 0 0 0 0 0 0 0 0 0 0 0 0 0 0 0 0 0 0 0 0 0 0
1 1 1 1 1 1 1 1 0 0 0 0 0 0 0 0 0 0 0 0 0 0 0 0 0 0 0 0 0 0 0 0 0 0 0 0 0 0 0 0 0 0 0
0 0 0 0 0 0 0 0 0 0 0 0 0 0 0 0 0 0 0 0 0 0 0 0 0 0 0 0 0 0 0 0 0 0 0 0 0 0 0 0 0 0 0
0 0 0 0 0 0 0 0 0 0 0 0 0 0 0 0 0 0 0 0 0 0 0 0 0 0 0 0 0 0 0 0 0 0 0 0 0 0 0 0 0 0 0
0 0 0 0 0 0 0 0 0 0 0 0 0 0 0 0 0 0 0 0 0 0 0 0 0 0 0 0 0 0 0 0 0 0 0 0 0 0 0 0 0 0 0
0 0 0 0 0 0 0 0 0 0 0 0 0 0 0 0 0 0 0 0 0 0 0 0 0 0 0 0 0 0 0 0 0 0 0 0 0 0 0 0 0 0 0
0 0 0 0 0 0 0 0 0 0 0 0 0 0 0 0 0 0 0 0 0 0 0 0 0 0 0 0 0 0 0 0 0 0 0 0 0 0 0 0 0 0 0
0 0 0 0 0 0 0 0 0 0 0 0 0 0 0 0 0 0 0 0 0 0 0 0 0 0 0 0 0 0 0 0 0 0 0 0 0 0 0 0 0 0 0
0 0 0 0 0 0 0 0 0 0 0 0 0 0 0 0 0 0 0 0 0 0 0 0 0 0 0 0 0 0 0 0 0 0 0 0 0 0 0 0 0 0 0
0 0 0 0 0 0 0 0 0 0 0 0 0 0 0 0 0 0 0 0 0 0 0 0 0 0 0 0 0 0 0 0 0 0 0 0 0 0 0 0 0 0 0
0 0 0 0 0 0 0 0 0 0 0 0 0 0 0 0 0 0 0 0 0 0 0 0 0 0 0 0 0 0 0 0 0 0 0 0 0 0 0 0 0 0 0

GEFSMA_con_prob3kmehi_240.txt.gz
EHI
3 2 2 4 6 10 11 12 10 8 6 5 3 1 0 0 0 0 0 0 1 2 3 4 4 5 8 9 9 8 7 6 7 7 7 8 9 9 9 9 9 10 10
3 2 2 3 5 7 9 10 9 7 5 4 3 1 0 0 0 0 0 0 1 2 3 4 5 7 8 9 9 8 7 7 7 7 7 7 7 7 7 7 8 9 10
4 2 1 1 3 4 6 7 7 6 5 3 2 1 0 0 0 0 0 0 0 2 3 4 5 7 7 7 8 8 7 7 7 6 5 4 4 5 5 6 6 8 9
3 2 1 1 2 3 3 3 4 4 4 3 2 1 1 1 0 0 0 0 0 1 3 3 4 5 5 6 8 8 7 6 6 5 4 4 4 5 5 6 6 6 7
3 3 2 2 2 2 2 1 2 3 4 4 3 2 1 0 0 0 0 0 0 1 1 2 2 3 4 6 8 7 6 6 5 4 4 5 5 5 5 5 4 4 4
3 3 3 3 3 3 2 2 2 2 3 3 3 2 1 0 0 0 0 0 0 0 0 0 1 2 3 6 9 8 7 6 7 6 5 5 5 5 5 4 3 2 2
2 2 2 2 2 2 2 2 2 2 1 2 2 1 0 0 0 0 0 0 0 0 0 0 0 1 2 5 8 8 7 7 8 8 6 5 5 5 5 3 2 1 1
1 1 1 1 1 1 1 1 1 1 1 0 0 0 0 0 0 0 0 0 0 0 0 0 0 0 0 2 3 6 7 7 7 7 7 8 8 6 4 3 3 2 1
1 0 0 0 1 1 1 1 2 2 2 1 0 0 0 0 0 0 0 0 0 0 0 0 0 0 0 0 0 2 4 5 6 6 7 10 10 7 4 3 3 2 1
2 1 1 1 2 2 2 2 2 3 3 1 1 0 0 0 0 0 0 0 0 0 0 0 0 0 0 0 0 0 1 2 4 5 6 7 9 7 4 3 3 3 2
2 2 2 3 3 3 3 3 3 3 3 3 2 1 1 1 1 0 0 0 0 0 0 0 0 0 0 0 0 0 0 0 1 2 3 4 6 6 4 3 3 3 3
1 2 2 3 3 3 3 3 3 3 3 3 3 3 2 2 2 1 0 0 0 0 0 0 0 0 0 0 0 0 0 0 0 0 1 2 3 4 3 3 3 3 3
0 1 1 1 2 2 3 3 3 3 3 3 3 3 3 3 3 2 1 1 0 0 0 0 0 0 0 0 0 0 0 0 0 0 0 1 1 2 2 1 1 2 2
0 0 0 1 1 2 2 3 3 2 2 2 3 3 3 3 3 3 3 2 1 0 0 0 0 0 0 0 0 0 0 0 0 0 0 0 0 1 1 0 0 1 1
0 0 0 1 2 2 2 2 1 1 1 2 2 2 2 2 2 2 2 2 1 0 0 0 0 0 0 0 0 0 0 0 0 0 0 0 0 0 0 0 0 0 0
0 0 0 1 1 1 1 1 0 0 1 2 2 2 1 1 1 1 1 1 0 0 0 0 0 0 0 0 0 0 0 0 0 0 0 0 0 0 0 0 0 0 0
0 0 0 0 0 0 0 0 0 0 1 1 1 1 0 0 0 0 0 0 0 0 0 0 0 0 0 0 0 0 0 0 0 0 0 0 0 0 0 0 0 0 0
0 0 0 0 0 0 0 0 0 0 0 0 0 0 0 0 0 0 0 0 0 0 0 0 0 0 0 0 0 0 0 0 0 0 0 0 0 0 0 0 0 0 0
0 0 0 0 0 0 0 0 0 0 0 0 0 0 0 0 0 0 0 0 0 0 0 0 0 0 0 0 0 0 0 0 0 0 0 0 0 0 0 0 0 0 0
0 0 0 0 0 0 0 0 0 0 0 0 0 0 0 0 0 0 0 0 0 0 0 0 0 0 0 0 0 0 0 0 0 0 0 0 0 0 0 0 0 0 0
0 0 0 0 0 0 0 0 0 0 0 0 0 0 0 0 0 0 0 0 0 0 0 0 0 0 0 0 0 0 0 0 0 0 0 0 0 0 0 0 0 0 0
0 0 0 0 0 0 0 0 0 0 0 0 0 0 0 0 0 0 0 0 0 0 0 0 0 0 0 0 0 0 0 0 0 0 0 0 0 0 0 0 0 0 0
0 0 0 0 0 0 0 0 0 0 0 0 0 0 0 0 0 0 0 0 0 0 0 0 0 0 0 0 0 0 0 0 0 0 0 0 0 0 0 0 0 0 0
0 0 0 0 0 0 0 0 0 0 0 0 0 0 0 0 0 0 0 0 0 0 0 0 0 0 0 0 0 0 0 0 0 0 0 0 0 0 0 0 0 0 0
0 0 0 0 0 0 0 0 0 0 0 0 0 0 0 0 0 0 0 0 0 0 0 0 0 0 0 0 0 0 0 0 0 0 0 0 0 0 0 0 0 0 0
0 0 0 0 0 0 0 0 0 0 0 0 0 0 0 0 0 0 0 0 0 0 0 0 0 0 0 0 0 0 0 0 0 0 0 0 0 0 0 0 0 0 0

GEFSMA_con_prob3kmehi_246.txt.gz
EHI
1 2 4 4 3 3 4 4 5 6 6 5 4 4 3 2 2 2 2 2 1 0 0 0 1 1 1 2 4 5 5 5 3 1 0 0 0 0 0 0 0 0 0
1 2 4 4 3 3 4 4 5 6 6 7 6 6 6 4 3 3 2 1 0 0 0 0 0 1 2 2 4 5 6 5 3 1 0 0 0 0 0 0 1 1 0
4 4 5 4 3 2 3 5 5 6 7 7 7 6 6 4 3 3 2 1 0 0 0 0 0 0 2 3 4 5 6 5 2 0 0 0 0 0 0 1 2 2 1
8 7 6 5 4 4 4 6 6 6 6 6 6 5 4 4 4 4 4 2 1 0 0 1 1 1 2 4 5 5 5 3 1 1 0 0 0 0 1 2 3 4 3
10 9 8 8 7 6 5 6 6 7 7 7 6 6 5 5 5 6 5 4 2 1 0 1 1 2 3 5 5 5 4 3 3 3 2 1 2 1 2 3 4 4 4
12 11 10 9 9 7 7 6 5 6 7 7 7 7 7 6 6 6 6 4 2 1 0 1 1 2 3 4 5 5 5 5 6 6 4 3 3 2 2 3 4 3 3
13 12 11 10 9 9 8 6 5 6 7 7 8 9 9 6 5 6 6 5 3 1 1 0 0 1 2 3 4 6 6 6 8 9 6 4 2 1 1 2 2 1 1
11 11 10 9 8 8 6 4 4 5 7 7 8 10 9 6 5 6 6 6 5 4 3 2 1 1 1 2 3 4 4 6 9 10 7 5 2 1 0 1 1 0 0
8 8 7 6 5 4 3 3 3 5 6 7 7 8 7 6 5 5 6 7 8 6 5 5 3 3 2 2 2 3 2 3 6 8 7 5 3 2 1 0 0 0 0
7 6 5 4 3 2 3 3 3 4 5 7 6 6 6 5 4 5 6 8 8 7 7 7 6 6 4 2 1 1 1 1 2 4 5 5 4 3 3 1 0 0 0
7 6 5 5 4 3 4 4 3 3 4 5 6 5 5 4 4 4 6 6 6 6 7 8 7 6 4 2 0 0 0 0 0 1 2 4 5 5 4 2 0 0 0
6 6 6 5 4 4 4 4 4 3 3 4 5 4 4 4 4 5 5 4 3 5 6 7 6 5 4 3 1 0 0 0 0 0 0 2 3 5 5 3 1 0 0
5 6 6 6 5 4 4 3 3 2 2 3 3 3 4 5 7 7 6 3 2 2 4 4 4 4 4 3 2 1 0 0 0 0 0 0 1 3 3 3 2 0 0
6 6 6 5 4 3 2 1 1 1 1 1 1 3 4 6 7 8 7 4 1 1 1 2 2 2 3 3 2 1 0 0 0 0 0 0 0 1 1 1 1 0 0
6 6 4 3 2 1 1 0 0 0 0 0 1 2 3 4 5 5 5 3 1 0 0 1 1 1 1 2 1 0 0 0 0 0 0 0 0 0 0 0 0 0 0
4 4 2 0 0 0 0 0 0 0 0 0 1 2 2 3 3 3 2 1 0 0 0 0 0 0 0 0 0 0 0 0 0 0 0 0 0 0 0 0 0 0 0
2 2 1 0 0 0 0 0 0 0 0 0 1 1 1 1 2 2 1 0 0 0 0 0 0 0 0 0 0 0 0 0 0 0 0 0 0 0 0 0 0 0 0
1 1 1 0 0 0 0 0 0 0 0 0 0 0 0 0 1 1 0 0 0 0 0 0 0 0 0 0 0 0 0 0 0 0 0 0 0 0 0 0 0 0 0
2 2 2 1 0 0 0 0 0 0 0 0 0 0 0 0 0 0 0 0 0 0 0 0 0 0 0 0 0 0 0 1 0 0 0 0 0 0 0 0 0 0 0
3 2 2 1 0 0 0 0 0 1 1 1 0 0 0 0 0 0 0 0 0 0 0 0 0 0 0 0 0 0 0 0 0 0 0 0 0 0 0 0 0 0 0
1 1 1 1 0 0 0 0 0 1 1 1 0 0 0 0 0 0 0 0 0 0 0 0 0 0 0 0 0 0 0 0 0 0 0 0 0 0 0 0 0 0 0
0 0 0 0 0 0 0 0 0 0 0 0 0 0 0 0 0 0 0 0 0 0 0 0 0 0 0 0 0 0 0 0 1 2 2 1 0 0 0 0 0 0 0
1 0 0 0 0 0 0 0 0 0 0 0 0 0 0 0 0 0 0 0 0 0 0 0 0 0 0 0 0 0 0 0 1 3 4 3 1 0 0 0 0 0 0
2 1 0 0 0 0 0 0 0 0 0 0 0 0 0 0 0 0 0 0 0 0 0 0 0 0 0 0 0 0 0 0 1 2 3 3 1 0 1 1 1 0 0
2 1 0 0 0 0 0 0 0 0 0 0 0 0 0 0 0 0 0 0 0 0 0 0 0 0 0 0 0 0 0 0 0 0 1 2 2 1 1 1 1 0 0
2 1 0 0 0 0 0 0 0 0 0 0 0 0 0 0 0 0 0 0 0 0 0 0 0 0 0 0 0 0 0 0 0 0 1 4 4 2 1 1 0 0 0

GEFSMA_con_prob3kmehi_252.txt.gz
EHI
7 6 6 7 6 7 9 9 8 7 8 7 5 4 4 2 1 2 7 14 16 16 16 16 14 10 8 8 10 12 13 13 13 10 5 3 3 3 3 3 3 3 3
12 11 12 10 6 5 9 9 8 6 5 5 5 5 4 3 2 4 8 11 14 14 16 17 16 13 10 9 11 13 14 14 13 10 5 4 4 4 3 3 3 2 1
19 20 20 15 8 6 9 10 8 6 4 3 4 5 5 5 4 5 6 8 9 11 13 14 15 15 13 11 12 14 15 14 14 10 6 5 5 4 3 2 1 1 0
23 25 25 20 14 10 10 10 9 7 6 5 4 5 6 6 6 5 6 7 7 7 8 8 10 13 13 11 12 12 13 13 12 10 7 6 6 6 4 2 1 1 1
22 25 26 25 19 15 11 8 7 9 10 7 4 4 6 7 8 8 8 8 8 6 6 6 7 9 10 11 11 10 10 11 11 9 7 6 7 8 7 3 1 2 2
22 22 25 25 22 18 13 8 6 9 12 9 4 3 5 7 9 10 9 9 8 7 7 7 6 6 8 10 12 11 10 10 10 8 6 7 9 10 8 5 2 1 2
22 21 21 22 21 19 15 10 8 10 11 10 5 3 3 5 8 8 7 7 6 6 7 7 7 7 7 9 12 13 11 10 10 9 7 8 9 11 9 6 2 1 1
23 21 19 19 18 17 14 11 9 8 8 7 6 3 3 4 5 5 5 5 6 7 6 7 8 10 10 9 10 12 12 10 10 9 9 8 9 10 10 7 4 2 1
23 21 17 15 14 13 12 10 7 6 5 5 5 4 4 4 4 4 4 5 7 7 6 7 9 13 13 10 9 10 11 10 8 7 7 7 7 9 10 9 7 4 1
21 18 14 12 11 11 11 9 8 7 6 5 4 5 5 5 5 4 4 4 5 6 7 8 9 11 12 10 9 8 7 6 5 4 4 4 5 6 8 9 8 4 2
17 15 13 11 10 10 11 11 11 10 8 5 4 5 6 6 6 5 4 3 3 4 7 9 10 10 8 7 7 5 3 2 2 1 1 2 3 3 4 6 6 4 3
15 14 14 13 12 12 12 14 14 12 9 6 5 5 6 7 7 6 4 2 2 3 6 9 11 9 6 3 3 2 1 1 0 0 0 1 1 1 1 3 3 3 3
13 15 16 17 16 14 14 15 15 13 10 8 6 5 5 6 6 5 3 2 1 2 4 6 8 7 4 2 1 0 0 0 0 0 0 0 0 0 0 1 1 2 2
13 15 17 18 18 15 13 13 13 12 12 11 7 5 5 5 7 6 4 2 1 1 2 3 5 5 4 3 1 0 0 0 0 0 0 0 0 0 0 0 0 1 1
13 13 15 16 15 13 12 12 11 10 12 12 9 7 6 6 8 8 6 4 2 1 1 2 3 4 4 3 1 0 1 0 0 0 0 0 0 0 0 0 0 0 0
10 10 11 11 10 11 11 12 11 10 11 13 11 8 6 6 7 8 7 6 4 1 1 1 3 4 4 2 0 0 0 0 0 0 0 0 0 0 0 0 0 0 0
8 9 9 8 7 8 9 10 10 10 11 11 9 6 4 4 4 5 6 5 4 3 2 2 3 5 4 2 0 0 0 0 0 0 0 0 0 0 0 0 0 0 0
9 9 8 8 7 6 6 6 6 8 9 8 5 3 2 2 3 4 4 4 4 4 4 4 3 4 4 2 1 1 0 0 0 0 0 0 0 0 0 0 0 0 0
9 8 7 6 6 5 4 3 4 5 6 5 4 3 3 3 4 4 4 4 4 4 5 4 3 3 3 3 2 1 0 0 0 0 0 0 0 0 0 0 0 0 0
6 5 4 4 4 4 3 3 3 3 3 3 3 3 2 3 3 2 2 3 3 4 4 4 4 3 2 2 1 0 0 0 0 0 0 0 0 0 0 0 0 0 0
4 4 3 3 3 3 3 2 2 2 2 2 2 1 1 1 1 1 0 1 1 2 3 3 3 2 2 1 0 0 0 0 0 0 0 0 0 0 0 0 0 0 0
5 4 3 2 2 2 1 1 1 0 0 0 0 0 0 0 0 0 0 0 0 0 1 1 1 1 1 0 0 0 0 0 0 1 1 0 1 1 0 0 0 0 0
6 4 2 1 1 1 0 0 0 0 0 0 0 0 0 0 0 0 0 0 0 0 0 0 0 0 0 0 0 0 0 0 0 1 1 1 1 1 0 0 0 0 0
6 5 3 1 0 0 0 0 0 0 0 0 0 0 0 0 0 0 0 0 0 0 0 0 0 0 0 0 0 0 0 0 0 1 1 0 1 1 0 0 0 0 0
6 6 5 3 2 1 0 0 0 0 0 0 0 0 0 0 0 0 0 0 0 0 0 0 0 0 0 0 0 0 0 0 0 0 0 0 1 1 1 0 0 0 0
6 6 6 6 4 2 1 0 0 0 0 0 0 0 0 0 0 0 0 0 0 0 0 0 0 0 0 0 0 0 0 0 0 0 0 0 1 2 1 0 0 0 0

GEFSMA_con_prob3kmehi_258.txt.gz
EHI
0 0 0 0 0 0 0 1 2 1 1 1 1 0 0 0 0 0 2 7 12 13 14 17 18 17 19 22 22 19 13 11 11 8 5 4 4 3 3 3 3 3 3
0 0 0 0 1 1 1 1 2 2 2 2 2 1 1 0 1 1 2 5 9 10 11 15 15 14 16 18 19 17 14 12 10 8 6 5 4 3 3 3 3 3 3
0 1 1 1 2 2 2 3 3 3 3 3 3 3 2 2 2 2 3 4 5 6 8 11 13 13 13 14 14 16 15 12 10 8 7 6 5 4 4 4 4 3 3
1 2 2 3 3 3 3 3 3 3 3 3 3 3 3 3 3 3 3 2 3 3 4 7 11 13 14 13 12 14 15 14 12 10 7 6 5 5 5 5 5 4 4
4 4 3 3 3 3 3 3 3 3 3 2 2 2 2 3 3 2 1 1 1 1 1 3 7 10 11 10 10 12 14 13 12 9 6 5 4 4 4 5 5 5 4
6 5 4 3 4 4 4 3 3 3 2 2 1 1 1 1 2 1 0 0 0 0 0 1 2 5 6 5 6 9 11 11 10 8 6 4 3 3 3 4 4 4 5
8 7 5 5 5 5 4 2 2 2 1 1 1 0 0 0 0 0 0 0 0 0 0 0 0 1 2 2 3 6 8 9 8 7 6 4 3 3 3 3 3 3 3
9 9 8 6 6 6 3 1 1 1 0 0 0 0 0 0 0 1 1 0 0 0 0 0 0 0 0 0 1 2 3 5 7 7 5 2 1 1 2 2 2 1 1
10 10 9 6 5 5 4 2 1 1 1 0 0 0 0 0 1 2 1 0 0 0 0 0 0 0 0 0 0 0 1 2 4 5 3 1 0 0 1 1 1 0 0
10 9 7 5 3 4 5 4 2 2 2 1 0 0 0 0 1 2 2 0 0 0 0 0 0 0 0 0 0 0 0 0 1 1 1 1 0 0 0 0 0 0 0
9 8 6 4 3 3 4 3 3 3 3 1 0 0 0 0 1 2 1 0 0 0 0 0 0 0 0 0 0 0 0 0 0 0 0 0 0 0 0 0 0 0 0
9 8 6 4 3 3 3 3 3 3 3 2 1 1 0 0 0 1 1 0 0 0 0 0 0 0 0 0 0 0 0 0 0 0 0 0 0 0 0 0 0 0 0
9 8 6 4 3 3 3 3 3 3 2 1 0 0 0 0 0 0 0 0 0 0 0 0 0 0 0 0 0 0 0 0 0 0 0 0 0 0 0 0 0 0 0
9 9 6 3 2 2 2 2 2 2 1 0 0 0 0 0 0 0 0 0 0 0 0 0 0 0 0 0 0 0 0 0 0 0 0 0 0 0 0 0 0 0 0
7 7 5 2 1 1 1 1 1 1 0 0 0 0 0 0 0 0 0 0 0 0 0 0 0 0 0 0 0 0 0 0 0 0 0 0 0 0 0 0 0 0 0
5 4 2 1 0 0 0 0 0 0 0 0 0 0 0 0 0 0 0 0 0 0 0 0 0 0 0 0 0 0 0 0 0 0 0 0 0 0 0 0 0 0 0
5 4 2 1 0 0 0 0 0 0 0 0 0 0 0 0 0 0 0 0 0 0 0 0 0 0 0 0 0 0 0 0 0 0 0 0 0 0 0 0 0 0 0
5 4 3 2 1 0 0 0 0 0 0 0 0 0 0 0 0 0 0 0 0 0 0 0 0 0 0 0 0 0 0 0 0 0 0 0 0 0 0 0 0 0 0
4 3 3 2 1 0 0 0 0 0 0 0 0 0 0 0 0 0 0 0 0 0 0 0 0 0 0 0 0 0 0 0 0 0 0 0 0 0 0 0 0 0 0
3 3 2 1 0 0 0 0 0 0 0 0 0 0 0 0 0 0 0 0 0 0 0 0 0 0 0 0 0 0 0 0 0 0 0 0 0 0 0 0 0 0 0
2 2 1 0 0 0 0 0 0 0 0 0 0 0 0 0 0 0 0 0 0 0 0 0 0 0 0 0 0 0 0 0 0 0 0 0 0 0 0 0 0 0 0
1 1 0 0 0 0 0 0 0 0 0 0 0 0 0 0 0 0 0 0 0 0 0 0 0 0 0 0 0 0 0 0 0 0 0 0 0 0 0 0 0 0 0
0 0 0 0 0 0 0 0 0 0 0 0 0 0 0 0 0 0 0 0 0 0 0 0 0 0 0 0 0 0 0 0 0 0 0 0 0 0 0 0 0 0 0
0 0 0 0 0 0 0 0 0 0 0 0 0 0 0 0 0 0 0 0 0 0 0 0 0 0 0 0 0 0 0 0 0 0 0 0 0 0 0 0 0 0 0
0 0 0 0 0 0 0 0 0 0 0 0 0 0 0 0 0 0 0 0 0 0 0 0 0 0 0 0 0 0 0 0 0 0 0 0 0 0 0 0 0 0 0
0 0 0 0 0 0 0 0 0 0 0 0 0 0 0 0 0 0 0 0 0 0 0 0 0 0 0 0 0 0 0 0 0 0 0 0 0 0 0 0 0 0 0

GEFSMA_con_prob3kmehi_264.txt.gz
EHI
0 0 0 0 0 0 0 1 2 2 1 0 0 0 0 0 0 0 1 2 2 2 4 5 5 5 5 6 7 7 6 5 7 9 9 8 7 5 4 3 3 3 3
0 0 0 0 0 0 0 0 1 2 1 0 0 0 1 1 1 1 1 1 2 2 3 5 6 6 6 6 7 7 8 7 7 9 9 9 8 6 4 4 4 4 4
0 0 0 0 0 0 0 0 0 1 1 1 1 1 2 2 2 2 2 2 1 1 2 4 5 6 6 6 7 7 8 8 8 8 9 9 8 6 5 5 5 4 4
0 0 0 0 0 0 1 1 1 1 1 1 2 2 2 2 2 1 1 1 1 0 1 2 2 4 5 5 5 5 5 6 6 6 6 6 5 4 4 5 4 4 3
0 0 0 0 1 1 1 2 2 2 2 1 1 1 1 1 1 0 0 0 0 0 0 0 1 1 2 2 3 2 2 2 3 2 2 3 3 3 3 3 3 2 1
0 0 1 1 2 2 1 2 3 2 1 0 1 1 0 0 0 0 0 0 0 0 0 0 0 0 0 1 2 1 0 1 2 2 1 2 3 3 3 2 1 1 0
0 1 2 3 3 3 2 2 2 1 0 0 1 1 0 0 0 0 0 0 0 0 0 0 0 0 0 1 1 1 0 1 3 3 2 2 2 2 2 1 0 0 0
1 2 3 3 4 4 4 2 1 0 0 0 1 1 0 0 0 0 0 1 1 0 0 0 0 0 0 1 1 0 0 1 2 2 1 1 1 1 1 0 0 0 0
3 3 3 3 4 5 4 1 0 0 0 0 0 0 0 0 0 0 0 1 2 1 0 0 0 0 0 1 1 0 0 1 1 0 0 0 0 0 0 0 0 0 0
3 3 3 3 3 3 2 0 0 1 2 1 1 1 0 0 0 0 0 1 2 1 0 0 0 0 0 1 1 0 0 0 0 0 0 0 0 0 0 0 0 0 0
3 3 2 3 3 2 1 1 1 2 3 3 2 2 1 1 1 1 1 1 2 2 0 0 0 0 0 0 0 0 0 0 0 0 0 0 0 0 0 0 0 0 0
3 2 1 2 2 2 2 2 3 3 3 3 3 2 2 2 2 2 1 1 1 1 0 0 0 0 0 0 0 0 0 0 0 0 0 0 0 0 0 0 0 0 0
5 4 3 3 3 2 2 3 3 3 3 3 2 1 1 1 1 1 0 0 0 0 0 0 0 0 0 0 0 0 0 0 0 0 0 0 0 0 0 0 0 0 0
7 7 6 5 5 4 2 3 3 3 2 1 1 0 0 0 0 0 0 0 0 0 0 0 0 0 0 0 0 0 0 0 0 0 0 0 0 0 0 0 0 0 0
7 7 7 6 6 5 3 2 2 1 1 0 0 0 0 0 0 0 0 0 0 0 0 0 0 0 0 0 0 0 0 0 0 0 0 0 0 0 0 0 0 0 0
6 6 5 4 4 4 2 1 1 0 0 0 0 0 0 0 0 0 0 0 0 0 0 0 0 0 0 0 0 0 0 0 0 0 0 0 0 0 0 0 0 0 0
5 5 3 3 2 2 1 0 0 0 0 0 0 0 0 0 0 0 0 0 0 0 0 0 0 0 0 0 0 0 0 0 0 0 0 0 0 0 0 0 0 0 0
4 4 3 2 1 1 0 0 0 0 0 0 0 0 0 0 0 0 0 0 0 0 0 0 0 0 0 0 0 0 0 0 0 0 0 0 0 0 0 0 0 0 0
3 3 3 3 2 1 0 0 0 0 0 0 0 0 0 0 0 0 0 0 0 0 0 0 0 0 0 0 0 0 0 0 0 0 0 0 0 0 0 0 0 0 0
3 3 3 3 2 1 0 0 0 0 0 0 0 0 0 0 0 0 0 0 0 0 0 0 0 0 0 0 0 0 0 0 0 0 0 0 0 0 0 0 0 0 0
3 3 3 3 2 1 0 0 0 0 0 0 0 0 0 0 0 0 0 0 0 0 0 0 0 0 0 0 0 0 0 0 0 0 0 0 0 0 0 0 0 0 0
3 3 3 2 1 0 0 0 0 0 0 0 0 0 0 0 0 0 0 0 0 0 0 0 0 0 0 0 0 0 0 0 0 0 0 0 0 0 0 0 0 0 0
2 2 1 1 0 0 0 0 0 0 0 0 0 0 0 0 0 0 0 0 0 0 0 0 0 0 0 0 0 0 0 0 0 0 0 0 0 0 0 0 0 0 0
1 1 0 0 0 0 0 0 0 0 0 0 0 0 0 0 0 0 0 0 0 0 0 0 0 0 0 0 0 0 0 0 0 0 0 0 0 0 0 0 0 0 0
0 0 0 0 0 0 0 0 0 0 0 0 0 0 0 0 0 0 0 0 0 0 0 0 0 0 0 0 0 0 0 0 0 0 0 0 0 0 0 0 0 0 0
0 0 0 0 0 0 0 0 0 0 0 0 0 0 0 0 0 0 0 0 0 0 0 0 0 0 0 0 0 0 0 0 0 0 0 0 0 0 0 0 0 0 0

GEFSMA_con_prob3kmehi_270.txt.gz
EHI
3 3 2 2 2 3 3 2 1 1 0 0 1 0 0 0 1 2 3 3 1 1 2 3 3 3 3 3 3 3 3 3 3 3 3 3 3 2 1 0 0 0 0
3 3 2 2 2 3 3 2 1 1 1 1 1 1 0 1 2 3 3 2 2 3 4 5 5 4 3 3 3 3 3 4 3 3 3 2 2 2 1 0 0 0 0
5 4 3 3 3 3 4 3 3 3 3 3 3 1 0 1 3 3 2 2 2 3 4 6 6 5 3 3 3 3 3 4 4 3 3 2 2 2 1 0 0 0 0
9 7 4 2 1 3 6 6 6 6 6 6 5 3 2 3 4 4 3 2 1 1 2 4 6 5 4 3 3 3 3 4 3 3 2 2 2 2 1 0 0 0 0
12 11 7 3 1 2 6 8 8 7 8 8 7 6 5 5 5 4 3 2 2 1 1 2 4 4 3 3 3 4 3 3 3 1 1 1 2 1 0 0 0 0 0
15 14 12 9 5 4 7 9 8 8 9 10 8 6 5 5 4 3 3 3 3 2 2 1 1 1 1 1 2 3 3 2 2 1 0 1 1 0 0 0 0 0 0
17 16 15 15 12 10 11 11 9 9 10 10 8 5 3 3 3 3 3 3 3 3 2 1 1 0 0 0 1 1 1 1 1 1 1 1 1 0 0 0 0 0 0
19 18 17 18 16 14 14 13 10 8 7 7 7 5 2 2 3 3 3 3 4 3 2 1 1 1 0 0 0 0 0 0 2 2 1 1 1 0 0 0 0 0 0
20 19 18 17 17 15 14 13 11 9 6 4 4 4 3 4 5 4 4 4 5 5 4 2 1 1 0 0 0 0 0 0 1 3 2 1 0 0 0 0 0 0 0
19 18 17 17 16 15 13 12 11 10 8 5 3 3 3 5 7 6 5 5 6 6 5 4 3 1 0 0 0 0 0 0 0 1 2 2 1 0 0 0 0 0 0
17 15 14 14 14 14 12 11 11 11 9 8 5 4 4 5 5 6 6 6 6 6 6 6 4 2 1 0 0 0 0 0 0 0 1 1 1 0 0 0 0 0 0
16 14 11 10 10 11 10 10 11 11 10 9 8 7 5 4 4 4 5 7 7 6 6 5 4 3 1 0 0 0 0 0 0 0 0 0 0 0 0 0 0 0 0
16 14 11 9 9 10 11 11 11 11 10 10 9 9 7 4 4 4 4 6 7 6 5 4 3 3 2 2 2 1 0 0 0 0 0 0 0 0 0 0 1 1 0
13 13 12 11 12 12 12 11 11 10 10 9 9 8 7 5 3 3 3 5 6 5 3 3 3 3 4 4 4 1 0 0 0 0 0 0 0 0 0 0 1 1 1
12 12 12 12 12 12 11 9 9 9 9 8 7 6 6 6 3 2 3 4 5 3 2 2 4 4 5 5 3 1 0 0 0 0 0 0 0 0 0 0 1 1 0
13 11 9 8 9 10 9 8 8 7 7 7 6 6 6 6 5 4 4 4 5 4 3 4 4 5 5 3 1 0 0 0 0 0 0 0 0 0 0 0 0 0 0
14 11 7 6 7 8 8 8 7 7 6 6 6 6 6 6 6 5 4 4 5 6 5 5 4 5 5 4 1 0 1 0 0 0 0 0 0 0 0 0 0 0 0
12 10 7 6 7 7 8 8 8 7 7 6 6 5 5 5 5 6 6 5 4 5 5 4 3 4 5 4 1 0 0 0 0 0 0 0 0 0 0 0 0 0 0
10 9 7 6 6 6 7 7 8 8 7 5 4 3 2 2 3 5 5 4 3 3 2 2 2 3 3 3 2 1 0 0 0 0 0 0 0 0 0 0 0 0 0
9 9 7 6 6 6 6 6 7 8 7 4 2 1 0 1 1 2 2 2 1 1 1 1 1 1 2 2 2 1 1 1 1 1 1 1 0 0 0 0 0 0 0
8 8 7 6 6 6 5 5 5 6 6 4 2 0 0 0 0 0 0 0 0 0 0 0 0 0 1 1 1 1 1 1 1 1 2 2 1 1 1 0 0 0 0
8 8 7 6 5 4 3 3 4 4 4 3 1 0 0 0 0 0 0 0 0 0 0 0 0 0 0 0 0 0 0 1 1 2 2 2 3 4 2 0 0 0 0
8 7 6 4 4 3 1 1 2 3 3 2 1 0 0 0 0 0 0 0 0 0 0 0 0 0 0 0 0 0 0 0 1 2 3 3 4 4 2 0 0 0 0
6 5 4 3 3 2 1 0 1 2 2 1 0 0 0 0 0 0 0 0 0 0 0 0 0 0 0 0 0 0 0 0 1 2 3 3 3 3 1 0 0 0 0
3 3 3 3 3 2 1 0 1 1 1 0 0 0 0 0 0 0 0 0 0 0 0 0 0 0 0 0 0 0 0 0 0 1 2 2 2 1 0 0 0 0 0
2 3 3 3 3 2 1 0 0 1 0 0 0 0 0 0 0 0 0 0 0 0 0 0 0 0 0 0 0 0 0 0 0 0 1 1 1 0 0 0 0 0 0

GEFSMA_con_prob3kmehi_276.txt.gz
EHI
6 6 9 10 9 7 8 9 7 6 7 7 4 2 2 2 3 4 3 3 3 4 6 8 7 5 4 5 7 10 10 9 8 7 6 5 3 2 2 3 3 3 3
14 13 13 13 11 9 9 10 8 7 7 7 6 5 5 4 4 5 6 6 5 5 7 9 10 8 6 5 7 8 8 9 8 7 6 5 3 3 3 4 4 4 4
27 24 19 15 13 11 12 12 11 9 8 8 9 10 9 8 8 9 9 8 6 5 9 11 12 11 9 7 6 6 6 7 7 7 6 5 4 4 4 5 5 4 3
33 30 24 18 15 14 14 13 12 11 10 9 11 12 13 13 13 12 10 8 6 6 9 11 12 12 11 9 7 6 5 5 5 5 4 4 3 3 4 4 3 3 2
33 31 27 24 20 17 16 14 13 13 12 11 10 12 13 14 13 10 8 7 7 7 8 9 10 12 13 12 10 8 7 6 5 3 2 3 3 3 3 2 1 1 0
32 30 28 28 26 22 18 16 16 16 14 12 10 10 11 12 10 8 7 8 8 7 7 8 9 11 13 13 11 10 9 7 5 3 2 3 3 3 3 1 0 0 0
31 30 27 28 29 27 23 21 20 18 16 14 11 8 8 9 9 9 9 9 8 6 6 7 9 11 11 11 10 9 9 8 7 4 3 4 4 3 3 1 0 0 0
30 29 27 26 27 28 27 26 24 20 17 15 12 9 7 7 7 7 8 9 7 6 5 6 9 11 11 10 9 8 7 7 7 6 5 5 4 3 3 2 1 0 0
27 27 26 25 26 27 28 28 26 22 18 16 14 10 7 7 6 5 5 6 8 7 5 5 8 11 12 11 9 6 5 4 5 7 7 7 5 3 3 2 1 0 0
26 25 24 24 25 25 25 25 24 22 19 18 15 10 8 8 7 5 3 3 7 9 6 6 8 12 13 13 10 6 2 1 2 4 6 6 4 4 3 2 1 0 0
26 24 23 24 23 22 21 22 23 22 20 18 14 10 8 8 8 6 3 2 4 6 6 7 8 10 13 13 10 6 2 0 1 1 3 4 4 4 3 2 1 0 0
28 25 22 23 23 20 19 22 24 22 19 17 13 10 9 9 9 8 5 4 3 4 5 7 8 8 10 11 9 5 1 0 0 0 1 1 2 3 4 3 2 1 0
28 25 22 23 23 20 20 22 22 19 19 18 14 12 12 11 9 7 6 5 5 4 3 4 5 6 8 9 7 4 1 0 0 0 0 0 1 1 3 3 2 1 0
25 25 24 24 23 21 20 20 18 17 18 17 15 13 13 12 10 7 5 5 5 3 1 1 2 4 7 7 5 3 1 0 0 0 0 0 0 0 1 1 1 0 0
23 25 26 24 22 20 19 18 17 17 18 16 13 12 11 10 10 7 5 4 4 2 1 0 2 4 5 4 3 3 3 1 0 0 0 0 0 0 0 0 0 0 0
22 24 24 24 22 20 19 18 18 17 17 15 12 9 8 8 9 8 6 5 3 2 1 1 3 4 3 1 1 4 4 2 0 0 0 0 0 0 0 0 0 0 0
23 21 21 22 22 20 18 18 17 17 15 13 10 8 7 7 8 9 8 6 4 3 2 3 3 3 1 0 1 3 4 3 1 0 0 0 0 0 0 0 0 0 0
21 20 19 20 21 19 17 16 15 15 13 10 7 7 8 8 9 10 8 7 5 4 3 4 3 1 0 0 1 2 2 3 2 1 0 0 0 0 0 0 0 0 0
20 18 18 18 19 17 15 14 13 12 11 9 7 7 8 9 10 9 8 6 4 4 4 3 2 1 0 1 1 0 1 2 1 0 0 0 0 0 0 0 0 0 0
17 17 16 16 16 14 12 11 11 9 9 9 8 7 7 7 7 7 6 4 3 4 3 2 1 0 0 0 0 0 0 0 0 0 0 0 0 0 0 0 0 0 0
15 15 15 14 13 10 8 7 7 6 7 8 8 7 5 4 3 3 2 1 1 2 1 0 0 0 0 0 0 0 0 0 0 0 0 0 0 0 0 0 0 0 0
14 14 13 12 10 7 5 4 4 4 6 7 7 6 4 1 0 0 0 0 0 0 0 0 0 0 0 0 0 0 0 0 0 0 0 0 0 0 0 0 0 0 0
12 11 9 8 7 6 3 2 2 3 5 7 7 5 4 1 0 0 0 0 0 0 0 0 0 0 0 0 0 0 0 0 0 0 0 0 0 0 0 0 0 0 0
8 8 7 6 6 5 3 1 1 3 4 5 5 4 3 2 0 0 0 0 0 0 0 0 0 0 0 0 0 0 0 0 0 0 0 0 0 0 0 0 0 0 0
7 7 7 7 7 5 3 1 1 2 4 4 4 3 2 1 0 0 0 0 0 0 0 0 0 0 0 0 0 0 0 0 0 0 0 0 0 0 0 0 0 0 0
8 7 7 9 7 5 2 1 1 2 4 4 3 1 0 0 0 0 0 0 0 0 0 0 0 0 0 0 0 0 0 0 0 0 0 0 0 0 0 0 0 0 0

GEFSMA_con_prob3kmehi_282.txt.gz
EHI
1 1 2 2 1 0 0 1 1 1 0 0 0 0 0 0 0 0 1 2 4 9 12 11 7 6 6 4 4 5 5 5 5 4 4 3 3 3 3 2 3 3 3
3 3 3 3 2 1 1 2 2 1 0 0 0 0 0 0 0 0 1 2 4 8 10 9 8 7 5 4 3 4 4 4 4 4 4 3 3 3 3 3 3 3 4
6 6 6 6 4 3 3 3 3 2 1 1 0 0 0 0 1 1 2 3 4 6 6 6 7 7 5 4 4 4 4 4 4 4 4 3 3 3 3 2 2 3 3
9 8 8 8 7 6 6 5 5 4 3 2 1 0 0 1 2 3 3 3 3 3 4 4 5 6 6 6 6 6 6 6 5 5 4 4 3 3 2 2 2 2 2
10 9 8 8 8 8 7 6 6 5 4 2 1 1 1 2 3 3 3 3 3 3 3 4 5 6 6 6 6 6 6 6 5 4 4 3 3 3 3 2 2 2 2
12 10 8 8 8 8 7 6 5 4 3 1 1 2 3 3 3 3 3 3 3 3 3 3 4 5 5 6 6 6 6 5 5 4 4 3 3 3 3 2 2 1 1
14 12 10 9 9 8 7 6 5 4 3 2 2 3 3 3 3 3 3 3 3 3 3 3 3 3 3 4 5 5 5 5 6 6 6 4 3 3 1 1 1 0 0
18 15 11 10 10 9 8 7 5 4 3 3 3 3 3 3 3 3 3 3 3 3 3 2 1 1 2 1 2 3 4 5 6 7 8 6 4 2 1 0 0 0 0
21 18 14 11 11 10 8 7 6 5 4 3 3 3 3 3 3 3 2 2 1 1 2 1 0 0 0 0 1 1 2 3 5 7 7 6 4 2 0 0 0 0 0
22 20 16 14 12 10 8 7 6 6 5 4 4 3 3 3 2 1 1 1 0 0 0 0 0 0 0 0 0 0 0 1 3 4 4 4 4 2 1 0 0 0 0
21 19 17 14 12 10 8 7 7 7 6 6 5 4 3 2 1 0 0 0 0 0 0 0 0 0 0 0 0 0 0 0 1 1 2 2 3 3 2 1 0 0 0
19 17 15 13 11 10 10 9 8 7 6 6 4 3 3 2 1 0 0 0 0 0 0 0 0 0 0 0 0 0 0 0 0 0 1 1 1 2 2 1 0 0 0
17 16 13 12 11 11 10 10 9 7 6 5 4 3 3 3 2 1 0 0 0 0 0 0 0 0 0 0 0 0 0 0 0 0 0 0 0 1 1 1 0 0 0
16 14 12 10 10 10 9 8 8 6 4 4 3 3 3 3 2 1 0 0 0 0 0 0 0 0 0 0 0 0 0 0 0 0 0 0 0 0 0 0 0 0 0
13 12 11 10 10 10 8 6 6 5 4 3 3 3 3 3 2 1 0 0 0 0 0 0 0 0 0 0 0 0 0 0 0 0 0 0 0 0 0 0 0 0 0
11 11 11 10 11 10 9 7 6 5 4 3 3 3 3 3 2 1 0 0 0 0 0 0 0 0 0 0 0 0 1 1 0 0 0 0 0 0 0 0 0 0 0
8 8 9 9 10 10 9 8 8 7 5 4 3 3 3 2 1 0 0 1 1 1 0 0 0 0 0 0 0 0 1 2 1 0 0 0 0 0 0 0 0 0 0
3 4 5 6 8 8 8 8 8 8 6 4 2 1 2 1 0 0 0 1 2 1 0 0 0 0 0 0 0 0 1 2 2 1 0 0 0 0 0 0 0 0 0
0 1 1 3 5 6 6 6 6 6 4 2 0 0 0 0 0 0 0 1 1 1 0 0 0 0 0 0 0 0 0 1 2 1 0 0 0 0 0 0 0 0 0
1 0 0 1 3 3 3 4 4 3 1 0 0 0 0 0 0 0 0 0 0 0 0 0 0 0 0 0 0 0 0 0 1 1 0 0 0 0 0 0 0 0 0
2 1 0 0 1 1 1 2 2 1 0 0 0 0 0 0 0 0 0 0 0 0 0 0 0 0 0 0 0 0 0 0 0 0 0 0 0 0 0 0 0 0 0
2 1 0 0 0 0 0 1 1 0 0 0 0 0 0 0 0 0 0 0 0 0 0 0 0 0 0 0 0 0 0 0 0 0 0 0 0 0 0 0 0 0 0
2 1 0 0 0 0 0 0 0 0 0 0 0 0 0 0 0 0 0 0 0 0 0 0 0 0 0 0 0 0 0 0 0 0 0 0 0 0 0 0 0 0 0
2 1 0 0 0 0 0 0 0 0 0 0 0 0 0 0 0 0 0 0 0 0 0 0 0 0 0 0 0 0 0 0 0 0 0 0 0 0 0 0 0 0 0
1 1 0 0 0 0 0 0 0 0 0 0 0 0 0 0 0 0 0 0 0 0 0 0 0 0 0 0 0 0 0 0 0 0 0 0 0 0 0 0 0 0 0
2 2 1 0 0 0 0 0 0 0 0 0 0 0 0 0 0 0 0 0 0 0 0 0 0 0 0 0 0 0 0 0 0 0 0 0 0 0 0 0 0 0 0

GEFSMA_con_prob3kmehi_288.txt.gz
EHI
3 1 0 0 0 0 0 0 0 0 0 0 0 0 0 0 0 0 0 0 0 0 1 2 2 3 4 4 2 1 1 2 3 3 3 3 3 3 3 3 2 1 0
4 1 0 0 0 0 0 0 0 0 0 0 0 0 0 0 0 0 0 0 0 0 0 1 2 3 4 3 2 2 2 3 3 3 3 3 3 3 3 2 1 0 0
5 2 0 0 0 0 0 0 0 0 0 0 0 0 0 0 0 0 0 0 0 0 0 0 1 3 4 3 3 3 3 4 4 3 3 3 3 3 3 2 1 0 0
6 4 2 1 0 0 0 1 2 1 0 0 0 0 0 0 0 0 0 0 0 0 0 0 1 3 4 4 5 5 4 4 3 3 2 2 3 3 2 2 1 0 0
7 7 5 3 1 1 2 2 3 2 1 0 0 0 0 0 0 0 0 0 0 0 0 0 1 3 5 6 6 5 4 3 3 2 1 2 2 1 1 1 1 1 1
8 9 8 6 4 4 4 4 4 3 1 0 0 0 0 0 0 0 0 0 0 1 1 1 1 3 5 6 6 5 4 4 3 2 1 1 1 1 1 1 2 2 2
8 9 9 8 7 6 6 5 4 4 3 2 1 1 0 0 0 0 0 0 1 2 2 2 2 3 4 5 6 5 5 4 4 3 2 2 2 2 2 2 3 3 3
7 7 7 7 7 6 5 5 4 4 4 4 3 2 1 0 0 0 0 0 1 2 2 2 2 3 3 4 4 4 4 4 3 2 2 2 1 1 1 2 2 3 3
5 5 5 5 5 4 4 4 3 4 5 4 4 3 2 1 1 0 0 0 0 1 2 2 3 3 3 3 3 3 2 2 1 1 1 2 3 2 1 1 2 2 3
5 6 5 4 4 3 3 3 4 5 5 5 4 3 3 3 2 1 1 1 1 2 3 3 3 3 3 3 3 3 1 0 0 0 1 2 4 3 2 2 2 2 2
8 8 7 5 3 3 3 4 4 5 6 6 5 4 4 3 3 3 2 2 3 3 3 3 3 3 3 3 3 2 1 0 0 0 0 1 2 2 1 1 2 1 1
10 10 9 7 5 4 4 4 4 4 5 6 5 5 4 4 3 3 3 3 3 3 2 3 3 3 3 3 3 1 0 0 0 0 0 0 0 0 0 0 0 0 0
11 11 11 9 6 5 5 4 4 3 4 4 4 4 4 3 3 3 3 3 3 1 1 1 2 3 3 3 2 1 0 0 0 0 0 0 0 0 0 0 0 0 0
9 10 10 9 7 6 5 5 4 3 3 3 3 3 3 3 3 3 3 3 3 1 0 0 1 2 2 2 1 0 0 0 0 0 0 0 0 0 0 0 0 0 0
6 8 9 9 7 6 6 6 5 4 3 3 3 3 3 3 3 3 3 3 3 2 1 1 0 1 1 1 0 0 0 0 0 0 0 0 0 0 0 0 0 0 0
4 5 7 7 6 6 6 6 6 5 4 3 3 3 3 3 3 3 3 3 3 3 3 2 1 0 0 0 0 0 0 0 0 0 0 0 0 0 0 0 0 0 0
2 3 4 4 3 4 5 6 6 5 4 3 3 3 3 3 3 3 3 3 3 3 3 3 1 0 0 0 0 0 0 0 0 0 0 0 0 0 0 0 0 0 0
1 1 1 1 1 2 3 3 3 4 3 2 2 3 3 3 3 3 3 3 3 3 3 3 2 0 0 0 0 0 0 0 0 0 0 0 0 0 0 0 0 0 0
0 0 0 0 0 1 1 1 1 2 3 2 1 2 3 3 3 3 3 3 3 3 2 2 1 0 0 0 0 0 0 0 0 0 0 0 0 0 0 0 0 0 0
0 0 0 0 0 0 0 0 0 1 2 2 1 2 3 3 3 3 3 3 2 1 1 1 0 0 0 0 0 0 0 0 0 0 0 0 0 0 0 0 0 0 0
0 0 0 0 0 0 0 0 0 0 1 1 0 1 2 2 2 2 2 2 1 1 0 0 0 0 0 0 0 0 0 0 0 0 0 0 0 0 0 0 0 0 0
0 0 0 0 0 0 0 0 0 0 0 0 0 0 1 1 1 0 0 0 0 0 0 0 0 0 0 0 0 0 0 0 0 0 0 0 0 0 0 0 0 0 0
0 0 0 0 0 0 0 0 0 0 0 0 0 0 0 0 0 0 0 0 0 0 0 0 0 0 0 0 0 0 0 0 0 0 0 0 0 0 0 0 0 0 0
1 0 0 1 1 0 0 0 0 0 0 0 1 1 1 1 1 0 0 0 0 0 0 0 0 0 0 0 0 0 0 0 0 0 0 0 0 0 0 0 0 0 0
2 1 1 1 1 1 0 0 0 0 0 0 1 2 2 2 1 0 0 0 0 0 0 0 0 0 0 0 0 0 0 0 0 0 0 0 0 0 0 0 0 0 0
3 2 2 1 1 1 1 0 0 0 0 0 1 1 1 1 0 0 0 0 0 0 0 0 0 0 0 0 0 0 0 0 0 0 0 0 0 0 0 0 0 0 0